GFSFLT1_con_mucape_000.txt.gz
CAPE
469 703 377 468 697 911 1221 1316 1583 1885 2503 3566 3371 3320 3724 4274 4043 3270 3059 2946 1892 1295 795 386 610 1821 857 436 298 231 33 2 10
204 637 576 359 633 864 1136 1381 1895 2553 3278 3059 3142 3067 3414 3770 3982 3634 2993 2841 2783 1785 1467 432 1064 1139 729 271 366 93 45 2 9
236 573 662 418 549 774 1043 1312 1606 2027 2541 3149 2886 2865 3048 3152 3331 3535 3331 3158 3231 2256 1888 1403 918 741 323 286 244 94 143 25 11
159 448 762 705 518 618 1031 1135 1396 1873 2296 2623 2859 2836 3425 3246 2941 3050 3370 3304 3428 3017 2210 1396 947 789 263 277 232 175 235 186 9
10 260 733 909 808 791 912 1251 1216 1541 1939 2382 2695 3304 3540 2997 2913 2889 3140 3390 3058 2317 1729 973 1038 534 397 305 173 196 298 185 10
99 442 767 1079 1076 1174 1208 1242 1862 1606 1984 2181 2361 2767 2902 2891 2837 2930 3067 2819 1762 1671 863 649 360 432 663 738 695 276 358 399 294
210 691 903 1224 1254 1514 1578 1941 2671 2728 2039 2192 2382 2483 2869 3034 2839 2752 2734 2004 651 492 240 325 199 430 274 272 535 553 512 410 401
238 865 967 1321 1500 2493 2777 2740 2870 2583 2360 2402 2460 2670 2713 3018 3048 2663 1991 1267 772 332 152 438 48 33 1 13 629 317 735 355 259
289 1017 1103 1419 1670 1938 2312 2362 2491 2564 2594 2495 2641 2819 2892 3026 3421 2400 1477 1133 867 897 745 429 204 88 12 32 155 24 22 158 321
332 960 1135 1298 1635 1849 2315 2444 2685 2635 2645 2599 2681 2893 3024 3223 3019 1968 1297 1216 1243 1147 791 539 440 197 146 62 329 66 39 73 242
349 966 1149 1281 1389 1751 2013 1974 2102 2180 2333 2541 2734 2980 2999 3004 2649 1727 1612 1240 1160 1089 1033 969 662 353 252 208 253 263 142 67 449
516 1033 1355 1392 1329 1605 1842 1565 1804 1903 2096 2360 2557 2764 2824 2508 2075 1479 1216 1242 1165 1169 935 783 654 657 555 552 646 443 183 109 474
246 755 984 1177 1086 1399 1362 1377 1506 1874 2058 2385 2624 2728 2656 2085 1747 1680 1534 1427 1312 1146 1160 826 516 598 664 330 1108 288 103 39 435
691 1052 1164 1246 1161 1102 1333 1373 1626 1856 2080 2341 2514 2695 2494 1929 1905 2116 2034 1818 1347 1108 959 855 931 781 1051 796 369 732 149 23 549
1126 1058 896 820 1307 1703 1716 1748 2005 2283 2430 2671 2805 2776 2134 2073 1880 1787 1831 1631 1180 948 1081 1069 887 1445 1245 1022 1077 373 407 64 34
767 728 742 870 1433 1904 2162 2370 2381 2698 3294 3053 2911 2274 2245 1986 1810 1549 1528 1469 949 815 913 871 1157 1285 1039 848 1051 391 66 35 37
1125 1291 1141 1137 1312 1791 2409 2530 2653 3047 2568 2637 2721 2174 2059 1673 1902 1623 1477 1289 1140 1346 1327 1077 1644 1347 1028 430 876 570 74 27 44
1295 1391 1323 1247 1437 2031 2337 2405 2426 2318 2245 2191 2190 1987 1767 2172 1753 1296 1677 1298 1022 1289 579 400 602 474 253 660 1125 676 356 120 174
1478 1765 1802 1869 1966 2300 2401 2416 2400 2419 2133 2181 2108 2143 1717 1481 1526 1682 1513 830 634 391 224 24 17 82 179 213 167 155 46 26 11
156 767 1023 1948 1849 2070 2163 2298 2304 2288 2302 2047 1813 1699 1650 1455 990 1008 1027 975 582 198 13 20 0 31 46 30 32 27 35 31 6

GFSFLT1_con_mucape_003.txt.gz
CAPE
122 644 747 418 783 1276 1846 1819 2627 2859 3753 4680 4831 4568 4725 4750 4714 2860 2494 2989 2162 1363 964 741 1571 1665 1642 1141 273 287 234 27 1
27 285 679 609 494 861 1530 1655 2436 2919 3787 4357 4577 3631 4870 4859 4729 4552 2696 3704 3685 2136 2437 846 521 1240 1729 1320 579 426 399 39 510
12 51 657 662 485 625 1252 1245 1881 2780 3557 4249 4017 4185 4459 4275 4420 4611 4279 4372 4080 3445 2808 1857 1860 1267 1324 1102 937 982 915 506 528
37 58 491 786 567 551 845 918 1472 1980 2745 3842 4045 4184 4125 4303 3928 4058 4307 4090 3913 3729 2947 2798 2110 2168 1628 974 740 395 475 363 153
31 77 290 652 726 522 650 1262 1077 1293 1712 2069 3138 3961 4437 4421 4420 4100 3974 4155 4101 3984 3537 2901 2194 1975 1412 665 606 624 678 274 108
6 82 119 589 660 892 888 1054 1305 1056 1623 1503 2028 3433 3525 4142 3912 4201 4041 4123 4123 3926 3778 2884 1813 1647 1344 794 656 764 684 682 458
8 58 493 535 832 1285 1350 1521 1763 1695 1565 1289 1724 2408 2764 3939 4234 4034 3825 4120 3908 3373 3141 2492 1550 1372 951 803 602 477 445 494 390
0 1 369 968 1201 2285 2469 2198 2452 2362 1978 2363 2186 3204 3068 4028 4453 4081 3903 3977 3938 3153 2614 2010 1180 919 703 585 318 441 709 452 466
0 0 15 937 1442 1821 3052 2824 3157 3048 2942 3022 3070 3899 3782 4362 4646 4294 3901 3835 3346 2302 2179 1548 999 458 424 427 101 0 43 465 239
2 64 94 478 1373 1834 2511 2507 3440 3417 3635 3390 3787 4306 4408 4780 4821 4254 3346 3105 2694 2159 1819 1510 1108 515 522 337 487 33 34 107 256
66 174 171 229 1086 1823 2730 2288 2308 2919 3085 4095 4370 4529 4541 4758 4618 3683 2685 2346 2057 1955 2025 1846 1286 668 862 560 517 357 288 174 216
2 27 224 432 1392 1839 3427 3038 3569 3734 3439 3895 4181 4002 4551 4685 4048 3286 2498 1846 1785 2185 2130 2330 1209 811 775 757 673 464 177 178 434
408 462 246 860 1648 2098 2744 3289 2763 3344 2911 3469 3936 4035 4265 4573 3732 2984 2198 1835 1891 2193 2286 1915 960 904 893 769 1178 348 79 80 316
523 565 1380 2020 2028 2883 3243 3132 2538 3197 3071 3062 3100 3221 3339 3536 2930 2608 1943 2056 2288 2019 1886 1455 857 718 1104 1509 1087 782 159 98 379
1010 1215 1600 1712 2228 2590 2520 2879 3082 3368 3566 3724 3908 3752 3447 2907 2458 2165 2157 2361 1828 1552 1575 1410 1335 1627 1471 1322 1180 423 216 60 53
1626 1624 1671 1537 1503 2454 2458 3096 3318 3693 4535 4370 4062 3919 3065 2549 2480 2395 2533 2292 2048 1733 1558 1211 1285 1354 1055 1029 1143 1714 363 283 362
844 965 1290 1339 1598 2156 2697 3180 2822 3591 3528 3599 3661 2900 2466 2360 2322 2212 2173 2145 1437 1145 885 1051 1250 1250 1432 1341 1661 773 443 215 150
1197 1141 1161 1419 1705 2136 2440 2832 3240 2973 3261 3388 2756 2429 2373 2740 2339 2127 2020 1391 1228 1622 1569 1407 1166 1133 1234 1311 650 834 508 115 188
1370 1375 1458 1773 1733 2224 2559 2762 2890 2829 2892 3005 3071 2670 2560 2299 2029 2250 1595 931 957 936 587 561 440 238 192 286 135 182 355 188 115
319 1068 1251 1475 1606 1940 2358 2606 2899 2694 3067 2940 2678 2513 2362 2170 1797 1928 1711 1529 1360 741 412 233 1 0 45 60 70 82 105 95 26

GFSFLT1_con_mucape_006.txt.gz
CAPE
490 774 671 634 888 1056 1548 1595 2012 2438 3332 3806 4184 3958 3965 3713 3378 3041 3075 3519 2535 2563 1706 1884 1771 2166 2473 2308 1100 1049 1057 827 535
112 663 777 715 1010 1144 1578 1626 1945 2409 3423 3903 4210 4212 4173 4235 3723 3384 3006 3232 3227 2786 2354 2348 2193 1935 2350 1813 1382 1167 1344 404 571
51 91 852 923 834 1398 1569 1751 1851 2532 2946 3889 4278 4214 4215 4210 4212 3704 3381 3100 3417 2363 2513 2479 1646 2117 1674 1848 1118 1331 1217 596 852
24 54 685 700 968 1039 1662 1891 1912 2231 2631 3666 4130 4219 4151 4187 4142 4000 3651 4123 3839 2831 3090 2119 2152 1671 1845 1708 1300 1257 940 681 580
43 55 185 609 1099 950 1348 1643 1753 2144 2602 3233 3768 3972 4103 4089 4113 4125 4006 3507 3875 3197 3542 2541 2003 2129 1907 1700 887 1112 800 509 159
223 97 742 734 961 1079 1135 1298 1575 1932 2342 2758 3632 3793 3837 3778 3966 3989 3936 3804 3289 3560 3352 2835 2572 2076 1925 1306 768 933 670 573 569
137 539 1531 988 977 1324 1092 1310 1530 1780 2095 2361 3029 3398 3514 3637 3616 3690 3627 3727 3624 3445 3387 2987 2920 2175 1906 1245 751 683 624 682 686
246 467 1167 1395 1697 1867 1603 1677 1655 1628 1692 1851 2084 2980 3479 3617 3873 3699 3673 3651 3695 3545 3754 3581 3256 2284 1796 1178 617 560 698 656 665
240 269 323 1473 1756 2678 3069 2035 1862 1623 1580 1666 1956 2497 2932 3372 3777 3991 3843 3676 3868 3780 3965 3474 3008 1934 1312 746 487 310 305 723 740
268 212 306 749 2044 2196 2485 2677 2102 1747 1701 1914 1966 2718 2983 3205 3856 4180 3919 3848 3902 4051 3750 3062 2374 1590 849 456 575 188 104 380 564
135 325 157 251 24 2129 2803 2820 2269 2257 2127 2416 2374 3885 3379 3603 4259 4287 4050 3961 3915 3938 3077 2569 2257 1767 1264 624 560 148 222 126 129
22 6 698 388 54 662 2759 2845 2786 3152 2704 2547 3865 3544 4180 4254 4794 4511 4336 3990 3665 3252 2717 2977 2399 1889 1325 975 707 300 373 420 517
30 4 61 1062 1165 1337 3201 3335 2997 3180 3471 3238 3121 4110 4405 4825 4808 4412 3631 3225 2909 2739 2717 2333 2279 1480 1210 880 1226 825 699 503 300
1538 264 578 952 2823 3010 3586 3637 3414 3398 3566 3765 3715 4535 4557 4951 4665 3946 3168 2861 2482 2523 2392 2648 1868 1577 1291 1069 1011 835 553 546 368
1365 1277 686 2009 4164 4416 4217 4052 4062 4215 4253 4459 4620 4556 4704 4758 3863 3434 2953 2278 2302 2334 2083 1660 1909 1272 1029 1827 1570 797 738 521 196
1530 1297 2249 2325 3604 4212 4361 4474 3991 4091 4425 4265 4164 4194 4476 3869 3394 2516 2251 2583 1902 1803 1970 1631 1433 1405 1843 1690 1467 866 633 503 207
2162 2513 2826 2777 2934 3252 3783 3856 4089 4332 4276 4228 4115 4068 3337 2786 2562 2882 2908 2419 2123 1851 1792 1691 1435 2028 1699 1795 1535 1088 578 484 311
2519 2616 2831 3295 3511 3829 4095 4517 4167 4229 4437 4300 3549 2942 2574 2253 2136 2235 2227 1838 1471 1323 959 876 1838 2014 1698 1447 1418 1208 898 669 466
1477 1889 2115 2509 3281 3441 3136 3485 3866 4068 4046 3478 2982 2551 2344 2456 1990 2306 2123 1401 1038 1028 979 948 836 639 744 630 557 656 619 170 81
924 1417 2372 2902 3127 3394 3436 3336 3230 3548 3707 3156 3013 2652 2650 2061 2037 2322 1675 996 869 926 910 531 454 363 117 36 69 18 172 182 174

GFSFLT1_con_mucape_009.txt.gz
CAPE
121 117 82 90 353 503 705 760 1272 1749 2161 2087 2526 2478 2457 1752 2223 1497 1174 1733 1735 1511 1405 1611 1415 1214 894 688 379 372 301 102 108
178 41 153 182 190 461 708 775 1504 1543 2482 2521 2607 2796 2684 2294 2059 2032 1754 1867 2087 1671 1459 1708 1292 1303 1124 875 718 280 244 135 16
53 6 49 186 233 462 717 851 1296 1638 2216 2696 2893 2567 2966 2650 2392 1820 1781 1942 1923 2262 1219 1280 1222 1362 1421 1245 799 315 231 132 117
53 25 73 255 250 423 823 986 1254 1604 2169 2750 2977 3073 2949 2832 2704 2297 1945 2330 1980 1980 1595 1411 1146 1050 1717 1291 827 349 374 104 37
48 5 46 222 364 484 978 1144 1124 1575 2623 2755 3040 3196 3122 3055 3011 2816 2433 2034 2308 2154 1691 1570 1362 1331 1043 1453 1037 604 436 213 124
18 14 436 534 480 843 1115 1190 1161 1578 2194 3041 3236 3359 3255 3236 3010 3122 2989 2412 2729 2799 1867 1780 1328 1357 1270 1106 1003 758 490 334 148
9 28 244 638 692 1001 1108 1358 1320 1312 1917 2793 3248 3499 3376 3161 3091 3086 3170 3022 2379 2980 2851 2264 1721 1373 1382 1249 1044 841 570 497 296
54 140 463 713 798 730 1197 1353 1421 1450 1650 1991 2940 3228 3330 3128 3097 3103 3168 3129 3134 2454 2867 2707 2476 2144 1789 1475 1237 984 601 458 336
7 424 887 672 995 768 826 1144 1366 1498 1632 1934 2288 2962 3132 3003 3029 3072 3182 3248 3221 3255 2657 2817 2619 2315 2019 1774 1530 1237 716 472 397
24 20 601 715 854 1507 848 957 1153 1368 1587 1705 2100 2571 2952 2977 2845 3077 3052 3193 3121 3201 3235 3065 2971 2762 2432 2188 2036 1671 1148 416 415
14 3 27 351 700 1085 1924 1121 1110 1296 1446 1743 1941 2109 2709 2839 2991 2889 3184 3157 3172 3257 3273 3288 3217 3116 2750 2521 2210 1746 1091 572 357
0 0 15 0 361 1030 1480 1818 1333 1181 1301 1565 1736 1809 2075 2624 2769 3143 3305 3329 3291 3339 3331 3303 3369 2876 2770 2670 2362 1759 915 561 354
73 6 0 0 47 39 1577 1927 2005 1683 1378 1322 1390 1500 1895 2407 2598 3052 3551 3455 3431 3375 3245 2592 2402 2883 2734 2212 1583 1195 513 510 397
1221 936 526 69 247 626 1659 2020 2156 2021 1755 1522 1637 1402 2782 3153 3625 3789 3677 3524 3440 3012 2753 2597 2464 2576 1741 1481 1359 862 589 449 302
1226 991 882 3042 1358 1945 2357 2445 2479 2347 1895 1867 3109 3429 4164 4248 4276 4036 3763 3480 2977 2898 2609 2430 1990 1873 1634 1422 922 945 435 459 461
1585 2108 3051 3236 3632 3892 3769 3031 3015 3591 3909 3786 3816 4293 4288 4208 4146 4227 4085 2857 2419 2379 1668 1640 1524 1462 1604 833 849 698 670 643 692
2404 2607 3031 3069 3159 3418 3652 3671 3754 3866 3866 3873 4021 4008 4125 4076 3977 3611 3130 2520 1632 1527 1337 1192 1097 1029 771 873 804 733 719 646 645
2111 2543 2916 3028 3172 3612 3576 3493 3542 3550 3645 3733 3830 3798 3485 3365 3276 3156 2630 1462 1392 1296 1226 1269 1127 1262 1012 620 782 812 674 560 506
1133 1088 1551 3086 3361 3368 3475 3654 3602 3438 3338 3334 3265 2678 2807 2841 2721 1876 1726 1483 1365 1177 1009 939 976 892 680 594 754 812 642 413 262
259 298 222 1101 2166 2695 2974 3248 3119 2823 2778 2820 2809 2685 2400 1875 1863 1898 1726 1503 1256 919 885 784 849 707 575 439 420 711 569 387 26

GFSFLT1_con_mucape_015.txt.gz
CAPE
1 0 13 28 69 89 238 359 491 561 595 679 1053 1123 1062 998 1014 941 894 1017 881 803 978 1181 1312 1421 1250 1163 1131 875 382 213 0
0 0 1 29 69 65 89 201 303 576 582 551 907 1165 1166 1093 1070 1059 1060 1085 1032 900 874 1230 1372 1308 1421 1347 1293 930 605 247 8
0 0 2 15 74 91 70 103 194 421 640 601 564 919 1143 1153 1114 1135 1117 1056 1072 946 873 1059 1260 1293 1459 1351 1230 877 683 233 3
0 0 0 11 66 130 122 67 86 334 671 701 655 732 944 1029 1162 1140 1119 1131 1067 1026 1076 1148 1105 1269 1527 1141 1157 1101 822 294 136
0 0 0 5 63 142 130 75 86 328 605 827 769 861 1026 995 994 1149 1259 1165 1174 1098 1239 1373 1451 1376 1274 1123 1140 1330 922 518 486
0 0 0 0 0 56 179 92 128 348 670 900 931 1053 1180 1230 1217 1150 1279 1353 1261 1208 1320 1420 1310 1320 1237 1158 1285 1304 1008 750 687
0 0 1 2 0 111 196 127 206 459 782 976 1049 1220 1391 1448 1462 1506 1295 1308 1370 1380 1452 1554 1527 1327 1357 1443 1389 1240 1059 986 908
0 0 1 38 83 85 265 160 284 582 800 1180 1178 1294 1552 1617 1620 1694 1680 1554 1425 1354 1392 1437 1448 1502 1459 1607 1636 1430 1325 1247 1221
0 0 0 95 186 251 153 130 327 544 1011 1243 1460 1521 1640 1753 1868 1947 1951 1907 1765 1636 1525 1567 1565 1488 1385 1351 1430 1628 1655 1530 1365
0 0 0 0 89 39 57 186 426 581 1090 1225 1768 1768 1866 1948 1946 2133 2178 2119 2047 1929 1804 1695 1646 1602 1472 1443 1562 1680 1564 1539 1353
0 0 0 0 34 4 127 361 628 721 1043 1398 1755 1976 2005 2168 2230 2194 2297 2358 2298 2174 2042 1960 1865 1792 1681 1584 1655 1754 1729 1922 395
0 0 0 0 0 92 250 509 791 922 1004 1397 1895 2039 2173 2302 2442 2403 2468 2483 2527 2454 2302 2207 2161 1990 2032 2170 2231 2390 2566 2390 288
0 0 0 0 0 272 367 628 977 1082 1099 1410 1959 2240 2306 2464 2607 2551 2534 2577 2522 2567 2574 2371 2309 2431 2385 2433 2473 2510 2625 967 959
194 43 210 98 0 322 647 802 1084 1214 1228 1252 1645 2095 2401 2453 2645 2734 2635 2555 2542 2642 2673 2641 2479 2605 2708 2837 2874 2855 2386 836 2063
1185 1130 1483 1980 2033 1726 1047 478 789 1110 1263 1371 1431 1691 1902 2326 2480 2760 2705 2604 2582 2661 2680 2888 2765 2782 2845 2972 3148 2835 1449 2203 1611
1717 1960 1949 1842 1888 1658 1708 2353 1174 761 949 1268 1445 1530 1645 1820 2217 2547 2626 2593 2614 2687 2792 3026 3561 2850 2895 2703 2658 2207 1746 1072 662
1507 1859 2090 2098 1780 1492 1353 1043 2478 2419 1886 1462 1074 1300 1530 1624 1891 2370 2524 2618 2705 2690 2877 2855 2756 2479 2175 2257 1854 1476 1041 645 401
1643 1664 1535 1718 1958 1669 1408 1365 1022 946 2084 2375 1583 1222 1259 1460 1802 2406 2600 2609 2693 2619 2591 2308 2208 1876 1447 1464 1177 1015 662 578 389
1418 1436 1107 1028 1084 1035 1081 1144 1170 1041 933 754 2538 1782 2123 2137 2118 2259 2389 2609 2603 2650 2268 1535 912 792 351 728 594 742 488 365 360
488 357 257 244 475 182 238 510 267 53 36 491 1208 2482 2177 1933 1864 2056 2225 2531 2341 2529 1349 979 495 532 616 634 541 364 443 414 455

GFSFLT1_con_mucape_018.txt.gz
CAPE
25 120 273 349 357 285 246 373 410 459 507 590 637 606 576 561 611 411 502 620 536 569 541 769 934 1001 1174 1198 1204 968 859 657 142
0 0 5 73 198 272 192 176 239 345 448 541 620 642 600 585 607 517 559 654 664 724 526 690 827 951 1119 1250 1281 1105 1005 694 218
0 0 0 0 0 31 92 118 158 271 419 452 515 712 738 723 682 667 634 702 799 772 826 831 848 1006 1181 1274 1270 1215 1121 829 424
9 0 0 0 0 3 16 41 112 203 405 464 455 794 889 892 862 829 776 762 837 857 936 925 882 953 1171 1231 1239 1352 1259 1026 625
0 0 0 0 0 1 3 9 33 148 349 467 454 543 983 1007 988 962 904 859 842 873 975 978 963 873 1071 1133 1176 1389 1271 1078 807
0 0 0 0 0 0 0 0 0 60 184 475 523 495 696 979 1043 1017 972 901 879 921 954 967 966 886 982 1091 1086 1422 1279 1122 1088
0 0 0 0 0 0 0 0 0 43 151 361 586 610 610 809 945 1021 1099 1056 968 929 948 1004 1021 1058 1209 1250 1426 1353 1345 1115 1310
0 0 0 0 0 0 0 0 52 103 199 377 629 735 771 892 992 962 1023 1222 1172 1048 1015 1039 1122 1080 1276 1381 1370 1370 1288 1283 1346
0 0 0 0 0 0 34 126 161 268 296 546 733 910 956 1066 1193 1245 1205 1144 1244 1255 1189 1196 1186 1105 1168 1424 1353 1322 1453 1537 1519
0 0 0 0 0 12 145 253 338 368 464 691 849 1004 1138 1304 1386 1454 1525 1426 1297 1253 1243 1268 1320 1291 1215 1311 1469 1425 1494 1693 1759
0 0 0 0 0 0 83 314 422 481 453 757 1108 1142 1210 1448 1620 1647 1658 1709 1599 1488 1360 1304 1363 1424 1367 1320 1379 1439 1505 1519 1593
0 0 0 0 0 0 1 110 324 318 565 912 1205 1422 1448 1593 1755 1825 1848 1915 1898 1802 1647 1475 1483 1512 1587 1516 1486 1587 1513 1441 1509
0 0 0 0 0 0 0 0 105 397 653 1043 1207 1665 1727 1812 1906 1902 1926 2117 2107 2035 1926 1751 1737 1562 1722 1759 1727 1589 1606 1515 1710
542 952 492 0 0 0 24 68 400 591 691 984 1342 1580 1835 1946 2083 2175 2097 2237 2337 2358 2295 2115 1926 1757 1786 1920 1970 1837 1721 1760 1839
1080 1366 1320 1042 1482 1633 1195 304 533 785 882 896 1149 1530 1861 2013 2228 2324 2293 2450 2480 2548 2568 2569 2185 1939 2179 1967 2124 2183 2002 2205 2489
1116 1061 1068 846 582 798 1855 1952 566 714 1045 1150 1151 1192 1584 2134 2272 2513 2598 2611 2620 2637 2642 2592 2414 2357 2958 2861 2334 2360 2487 2537 2287
1223 1227 1237 1083 830 635 494 365 258 305 807 1500 1930 1036 1075 1558 2202 2449 2725 2681 2615 2713 2740 2717 2334 2380 2725 2886 2364 2207 2199 1811 937
682 579 582 617 524 402 358 390 468 545 516 513 579 1867 1826 1344 1601 2118 2560 2617 2667 2678 2796 2670 2549 2768 2393 2416 2137 1441 1195 771 484
638 491 302 330 372 330 338 275 3 0 0 0 0 580 1603 1561 1420 1736 2359 2352 2445 2703 2773 2660 2606 2743 2282 1679 910 477 321 237 281
177 351 417 455 519 727 580 512 211 52 1 0 0 23 1184 1550 1465 1593 1847 2190 2263 2338 2547 2542 2552 2300 1787 861 574 142 63 295 196

GFSFLT1_con_mucape_021.txt.gz
CAPE
604 795 928 1056 1427 1546 1587 1455 1449 1259 1408 1780 1920 1911 1998 2091 2244 1790 1941 2123 1479 1408 1411 1566 1971 2287 2290 2248 2133 1981 1553 1192 898
101 443 736 876 1258 1482 1543 1627 1549 1478 1445 1673 1881 1877 1959 2019 2094 2030 1928 2187 2214 1532 2075 1541 1860 2146 2300 2317 2194 2002 1625 1237 936
0 0 217 594 995 1229 1321 1294 1632 1470 1464 1677 1819 1897 1929 1867 1929 2010 2058 2182 2211 2130 2058 1880 1725 1982 2208 2316 2219 2020 1735 1435 1055
0 7 7 132 566 996 1244 1087 1222 1419 1425 1701 1930 1995 2027 1971 1934 1945 2030 2096 2240 2287 2214 2196 2149 2158 2137 2208 2216 2027 1825 1683 1244
0 22 86 77 144 356 687 1218 1099 1288 1348 1494 1759 1929 2093 2076 2119 2103 2089 2135 2211 2342 2374 2153 2644 2559 2228 2236 2277 2083 1837 1756 1347
0 0 19 75 51 128 509 821 1170 1180 1165 1257 1343 1794 1945 2113 2201 2245 2209 2209 2286 2374 2404 2412 1954 2515 2629 2220 2170 2109 1874 1921 1732
0 0 1 65 108 573 581 763 1007 1073 1213 1196 1326 1513 1818 2091 2253 2276 2294 2330 2401 2406 2454 2436 2491 2566 2582 2400 2097 2064 1911 1845 1897
0 0 0 0 2 662 913 893 1035 1075 1084 1404 1502 1774 1741 2058 2327 2394 2447 2453 2452 2448 2486 2382 2461 2607 2616 2444 2172 1909 2137 1868 1866
0 0 0 0 0 171 446 849 1122 1090 1158 1334 1590 1878 1873 1954 2312 2512 2518 2554 2567 2541 2497 2482 2514 2507 2586 2571 2050 1468 1213 1688 2102
0 0 0 0 0 81 554 632 1108 1133 1260 1411 1656 1570 2019 2198 2280 2447 2512 2537 2602 2553 2534 2494 2547 2510 2576 2624 2621 1370 1207 1341 2033
0 0 0 0 0 0 774 337 360 1010 1139 1584 1754 1956 2189 2325 2387 2423 2497 2462 2555 2678 2644 2576 2655 2554 2582 2679 2599 1517 1233 1240 1590
0 0 0 0 0 0 333 598 1083 1398 1434 1685 1867 1983 2202 2366 2442 2456 2578 2615 2592 2623 2708 2768 2692 2698 2684 2627 2707 1531 1317 1280 1438
0 0 0 0 0 0 29 182 279 1276 1292 1672 2060 2170 2248 2364 2652 2708 2754 2807 2891 2820 2738 2723 2593 2771 2774 2233 2710 1738 1326 1269 1665
215 316 0 0 10 394 510 658 486 1517 1643 1986 1864 2024 2314 2825 2867 2910 2984 3082 3100 3120 3081 2828 2875 2856 2813 2817 2341 2753 1577 1472 2003
1589 1496 604 396 1133 1439 1310 987 1458 1582 1877 1882 2134 2345 2680 3179 3198 2880 2904 3362 3412 3380 3176 3034 3002 2909 2771 2548 2737 1711 1925 1680 1625
933 595 690 1563 1479 1017 1093 1472 1890 2047 2042 1885 2159 2500 3096 3273 3306 3489 3488 3539 3519 3481 3333 2906 2803 2507 2337 2120 2068 2149 1759 1795 1834
697 499 346 236 219 256 441 523 656 947 1167 2235 2314 2467 2908 3196 3294 3646 3767 3352 3420 3449 3247 2871 2981 2703 2523 2220 2016 1930 1808 1809 2024
697 639 552 431 322 399 284 335 285 126 137 218 511 1564 2353 2344 2698 3067 3581 3806 3718 3601 3603 3224 3115 3131 2783 2390 1693 1501 2003 1839 2048
317 366 380 605 818 792 482 89 91 114 179 153 212 344 426 803 1440 2041 2576 3253 3524 2917 2967 2882 2692 2663 2445 2153 1697 2259 2033 1985 1667
339 348 630 623 693 473 615 859 822 705 602 685 513 448 334 552 1378 1484 1393 2650 2948 2356 2316 2716 2666 2544 2383 2381 2317 2164 2008 1511 626

GFSFLT1_con_mucape_024.txt.gz
CAPE
246 961 1170 1193 1482 1644 1561 1326 1833 1845 2613 3052 2903 2823 3576 3768 3690 2379 2392 2902 2187 2017 1591 1683 1736 2241 2513 2598 2564 2786 2802 2628 2227
0 670 1120 1273 1270 1556 1746 1793 2305 2678 3055 3436 3036 2552 3487 3820 3675 3483 2524 3390 3203 2314 3012 1802 1926 2085 2561 2540 2654 2761 2866 2599 2447
0 167 869 1087 1279 1376 1662 1848 1925 2252 2759 3295 3408 2986 3095 2907 3199 3653 3620 3761 3583 3526 2925 2876 2216 2401 2431 2462 2628 2810 2958 2553 2511
0 33 265 722 973 1199 1342 1658 1986 2085 2261 2813 2683 3190 3390 3328 3078 3017 3152 3246 3779 3880 3181 3529 2955 2885 2508 2371 2601 2847 3091 3146 2385
0 0 39 96 239 673 1151 1460 1745 2016 2152 2155 2492 2875 3552 3554 3562 3387 3061 3535 3561 3894 3768 3678 3624 3142 2900 2598 2424 3039 2996 3021 2272
0 0 46 150 121 242 763 1213 1638 1584 1847 1968 1982 2772 2535 2750 3091 3176 3444 3747 3489 3773 3924 3946 2880 3444 3800 3410 2916 3103 2944 3178 2931
0 0 0 0 31 140 461 1136 2027 2420 1570 1658 1757 1891 2274 3099 3525 3497 3551 3727 3761 3828 3998 4041 3883 3943 4100 3680 3128 2940 2911 2908 3019
0 0 0 0 47 400 966 1112 1816 2448 1913 1976 1845 2559 2154 3165 3581 3817 3829 3836 3937 3869 4042 3965 4086 4048 4112 3946 3046 2451 3426 3443 3007
0 0 0 0 0 57 349 914 1355 1446 2260 1893 2122 2885 2826 3153 3729 3999 3985 4071 4112 4102 4058 4102 4166 3980 4092 4098 3067 1901 1729 2625 3508
0 0 0 0 0 0 58 136 857 1315 1720 1815 2554 2907 3275 3509 3859 3969 4129 4059 4184 4147 4154 4156 4213 4167 4155 4254 4129 1960 1581 1655 3086
0 0 0 0 0 0 0 3 2 927 1388 2597 2791 3275 3401 3628 3560 3827 3815 4179 4179 4206 4134 4016 4130 4131 4180 4251 4113 2602 1743 1484 2679
0 0 0 0 0 0 77 0 46 386 1449 1830 2207 3311 3425 3568 3482 3524 3769 4153 4213 4189 4073 4095 4082 4089 4269 4274 4165 2663 2224 1612 2456
0 0 0 0 0 0 0 15 70 627 1188 1661 2424 3127 2921 3575 3826 3919 3879 4046 4280 4297 4238 3987 3341 3824 4109 3590 4165 3022 2343 1997 2174
6 1 16 15 0 0 41 390 420 619 1310 1792 2263 2410 2453 3307 3898 4107 4100 4291 4390 4181 4078 3638 4119 4088 4134 4306 3767 3995 2571 2134 2716
262 83 325 797 6 78 774 1443 1508 1402 2811 2191 2583 2836 2733 3625 4005 3385 3028 4475 4524 4221 4140 4221 4208 4173 3995 3810 4210 2776 2781 2386 1853
651 855 1283 1488 799 1623 1966 2277 2369 2469 2454 2427 2547 2759 3175 3162 3370 3398 3921 4378 4243 3663 4337 3465 3640 3401 3406 3617 3702 3942 2536 2391 2258
1152 808 891 1103 1580 1601 2071 2834 3096 3317 3097 2920 3072 3267 3406 3425 3596 3582 3511 3290 3419 3453 3379 3552 3362 3347 3567 3401 3272 3414 3130 2390 2092
550 353 506 998 1128 1196 1295 1265 1139 1061 1198 1538 2956 3161 3181 3408 3402 3520 3571 3936 3400 3350 3883 3198 3595 3515 3326 3591 3420 3148 2652 2216 1973
514 729 1018 1183 1146 1125 865 902 1185 1481 1474 1569 1359 1152 1041 1178 1624 1939 2663 2889 3468 2831 2695 2873 3042 3049 3020 3348 3013 2815 2550 2306 1981
582 508 551 602 724 1105 1380 698 628 778 1399 1268 1312 1249 1203 1244 1203 1688 1568 1747 2031 2344 2426 2921 2883 2887 2910 2751 2633 2689 2505 2192 1890

GFSFLT1_con_mucape_027.txt.gz
CAPE
167 315 796 1151 1404 1455 1453 1493 2021 2284 3354 4154 4257 4066 4068 3850 4159 2668 2298 2899 1785 1554 1263 1324 3007 3842 3557 3435 3392 3159 3760 2811 2499
44 249 613 1135 1348 1564 1805 1567 2275 2657 3347 3991 4148 3889 4147 4220 4072 3798 2812 3075 3540 2602 2878 1622 3193 3551 3592 3485 3566 3817 3944 2464 3348
0 51 512 1029 1262 1548 2000 1569 1980 2636 3175 3902 4030 3846 4014 4042 4203 4227 3912 4062 4191 3164 3371 3768 3496 3207 3314 3455 3732 3924 4201 3067 3456
0 0 331 935 1261 1418 1742 1770 1674 2103 2863 3658 3994 3889 3921 3903 3963 3977 4178 4005 4245 4148 4237 4479 3894 4220 3691 3721 3817 4065 4275 3806 3485
0 0 150 776 1036 1166 1293 1694 1900 2032 2266 2423 3703 3735 4051 3968 4009 3926 4012 4114 4002 4316 4344 4300 4581 4332 4289 4130 3814 4017 4215 3946 2684
0 0 56 311 800 965 1114 1326 2170 2021 2511 2221 2244 3341 3507 4100 4056 4042 3877 4092 4127 4230 4362 4408 4203 4368 4539 4418 4009 4011 4278 4243 3966
0 2 32 132 156 187 717 1426 2395 2879 2280 2298 2352 2555 2825 3585 4100 4009 4076 4126 4294 4255 4414 4425 4389 4353 4467 4461 4335 3944 3947 4083 4129
0 0 0 0 18 180 611 1795 2852 3022 2312 2731 2641 3274 3276 3466 4075 4280 4353 4339 4309 4348 4407 4411 4463 4443 4410 4591 4420 3556 3926 3769 4018
0 0 0 0 0 0 476 848 2085 2558 3291 2740 2674 3536 3382 3734 4110 4402 4489 4520 4526 4632 4496 4550 4546 4510 4401 4378 4221 2825 2270 3002 3808
0 0 0 0 0 0 47 443 810 1344 2903 3011 3016 3278 3948 3724 4198 4337 4558 4674 4698 4612 4628 4631 4608 4520 4512 4464 4480 2964 2187 2108 3603
0 0 0 0 0 0 0 0 0 1042 1052 3411 3665 3845 3718 4127 4063 4403 4575 4672 4674 4719 4655 4594 4621 4616 4654 4573 4422 3465 2648 2067 2867
0 0 0 0 0 0 49 0 0 0 962 2517 3614 3745 4143 3918 4196 4402 4563 4605 4630 4678 4648 4635 4556 4629 4671 4642 4540 3544 3204 2566 2671
112 23 11 10 0 0 0 8 0 0 120 1393 3443 3843 4067 4257 4447 4460 4573 4618 4731 4720 4705 4654 4486 4562 4620 4280 4652 3996 3403 3054 2905
703 710 583 258 347 348 84 67 46 978 1129 1539 2618 3011 3685 4483 4609 4724 4678 4693 4812 4855 4804 4512 4685 4583 4602 4683 4501 4576 3709 3269 3336
1156 1034 661 102 352 828 417 230 789 2248 2740 2981 3726 3900 4010 4497 4657 4190 4002 4873 4854 4902 4877 4810 4717 4726 4502 4503 4694 3866 3884 3577 3102
1453 1149 1263 1216 1330 1113 1229 2193 2362 2572 4149 3558 4047 4421 4652 4712 4733 4641 4632 4854 4919 4471 4743 4000 4138 3963 4136 4194 4015 4654 3790 3462 3337
1467 1383 1379 1330 1707 1942 2432 3376 3110 3281 3674 3198 3057 3641 4194 4268 4311 4509 4511 3660 3951 3761 3608 3680 3727 3495 3869 3434 3942 4136 4602 3533 3409
1521 1278 1076 1662 1865 2230 2264 2304 2221 2200 2349 3354 3575 3778 3775 3926 3697 3899 4317 4346 3437 3536 4096 3331 3602 3607 3375 3534 3737 3735 3637 3777 3709
1566 1481 1696 1943 2052 1762 1633 1876 1951 2027 2053 2097 2215 3133 3449 3235 3273 3604 3648 3602 3990 3063 2919 3016 2911 2834 2873 3016 3002 2958 2954 3093 3028
562 729 869 1177 1601 1545 1077 936 1071 1643 1810 1894 1941 2055 1996 1506 892 1348 1514 1930 2167 2288 2334 2473 2496 2481 2331 2417 2573 2726 2738 2814 2718

GFSFLT1_con_mucape_030.txt.gz
CAPE
158 473 869 1402 1654 1490 1279 1286 1558 1959 3001 3088 3063 2957 3079 2506 3456 2323 1688 3251 1727 1872 1806 1644 2990 2584 3098 3156 3102 3103 3711 2984 2964
118 218 467 1184 1704 1709 1497 1292 1529 1895 2714 3133 3287 2884 3274 3055 2534 3221 1824 2213 2871 2485 2409 2316 3280 2763 2789 2773 3130 3166 3308 2884 3245
86 225 457 1110 1579 1878 1631 1329 1516 1746 2485 3122 3408 3403 3170 3258 2722 2968 2943 2048 2846 2331 2873 2544 3824 3120 3062 3097 3164 3514 3367 3225 3197
53 391 588 943 1632 1891 1910 1504 1571 1709 1972 3022 3460 3499 3417 3341 3443 2777 2737 2882 2612 3500 2564 4129 2858 4036 3351 3236 3180 3267 3530 3032 2804
24 188 796 886 1334 1817 2105 1843 1646 1802 2064 2646 3305 3699 3697 3477 3495 3648 3254 2546 2862 3135 3921 2935 4060 3603 3444 3431 3123 3209 3183 3222 2415
157 473 549 873 1324 1587 1990 2103 1970 1949 2081 2257 3170 3663 3742 3678 3585 3489 3603 3535 2659 3309 3198 3931 3094 4036 3804 3283 3250 3126 3342 3204 3147
118 655 606 1029 1216 1636 1847 2188 2375 2268 2138 2322 2542 3430 3690 3659 3757 3562 3525 3484 3570 2961 3502 3276 3674 3471 3601 3814 3351 3275 3157 3258 3312
309 592 842 1207 1264 1670 1931 2291 2535 2677 2484 2444 2505 2620 3393 3519 3624 3915 3700 3645 3678 3786 3394 3481 3416 3551 3610 3509 3703 3438 3216 3161 3278
38 71 117 238 494 661 1453 2926 3005 2762 2776 2913 2815 2856 2923 3217 3521 3713 4075 3933 3857 3941 3884 3771 3860 3789 3656 3689 3613 3390 3112 2934 3197
0 0 0 3 99 588 1014 1441 3500 3232 3052 3090 3470 3296 3377 3355 3583 3736 3932 4094 4111 3970 4049 4023 4004 3992 3968 3713 3717 3430 3230 2991 3103
0 0 0 68 0 13 496 162 478 1999 3242 3699 3480 4006 3837 4189 4077 3856 4021 4085 4181 4212 4180 4216 4117 4176 4186 4068 3919 3534 3391 3131 2749
0 0 14 35 0 0 882 435 687 1139 1448 3423 3518 3292 3752 3689 4328 4192 4157 4236 4245 4299 4357 4288 4317 4257 4301 4294 4144 3774 3517 3333 3032
757 749 991 1329 971 858 455 1589 492 1504 1564 2778 3301 3327 3498 3976 3759 4187 4207 4309 4399 4413 4467 4442 4404 4393 4341 4233 4298 4048 3845 3555 3285
841 1165 1278 1301 1348 1315 2392 2410 1692 2935 2489 2116 3228 3455 3777 4181 4460 4157 4249 4444 4552 4550 4572 4530 4490 4442 4442 4398 4297 4292 4130 3890 3559
902 1462 1347 982 1414 1474 2031 1850 2288 2773 3552 4227 4239 4593 4149 4479 4705 4231 4280 4578 4752 4632 4558 4545 4496 4534 4467 4443 4476 4228 4154 4021 3902
1697 2084 1896 1679 2169 2780 3437 3167 4420 4355 4951 4848 4729 5226 4998 4712 4951 4628 4407 4710 4640 4584 4624 4557 4543 4493 4434 4519 4404 4384 4200 3998 3898
1434 2315 2031 1510 2116 2816 4430 4845 4804 4775 4964 4386 4626 5171 5377 5159 5109 4847 4702 4555 4590 4536 4459 4452 4428 4257 4309 4216 4120 4178 4155 3748 3903
930 1769 2463 3102 3361 2996 2888 2878 3368 3540 3488 4160 4356 4562 4849 5083 4746 4748 4802 4663 3992 4532 4386 4025 4159 4086 3915 3725 4007 3665 3332 3187 3445
733 1106 1526 2364 2724 2215 2400 2309 2241 2574 2555 3146 4330 4902 4560 4356 4096 4431 4137 4403 4407 3799 3230 3189 3101 3074 3149 3102 3017 3035 3001 3038 2907
408 693 1158 1434 2050 1650 1488 1406 1637 1846 2142 2597 3213 3229 3725 2930 3062 3069 4577 4418 4767 4480 3169 2830 2907 2876 2814 2705 2571 2509 2786 2928 2888

GFSFLT1_con_mucape_036.txt.gz
CAPE
189 319 364 365 339 340 311 467 483 357 518 817 1026 913 832 881 859 762 679 837 781 485 741 682 739 1453 1782 1782 1551 1314 1054 1052 1155
330 289 270 204 337 356 311 477 680 572 524 627 1136 1025 1095 1177 1077 989 949 961 659 643 727 1013 882 1045 1530 1590 1630 1417 1323 1219 1031
418 460 353 329 462 415 346 513 747 862 815 720 1174 1205 1005 1004 1305 1534 1076 999 937 1135 902 982 1280 1156 1536 1616 1715 1656 1410 1540 1299
328 522 468 485 364 456 465 473 733 1256 1196 1065 1325 1499 1433 1148 913 927 1817 1431 1058 717 1124 1383 1072 1407 1348 1697 1673 1772 1547 1517 1775
181 262 443 626 529 485 541 541 749 1185 1599 1394 1389 1677 1685 1585 1379 987 929 1814 1811 1215 682 1071 1680 1255 1424 1544 1736 1732 1701 1440 1529
46 192 354 585 713 562 620 630 729 1055 1598 1679 1559 1586 1608 1629 1629 1458 1110 1042 1729 1956 1508 980 1392 1694 1532 1514 1630 1747 1890 1698 1636
0 156 729 783 856 748 711 725 806 921 1147 1846 1729 1720 1710 1568 1696 1743 1538 1242 1055 1714 2030 1595 1064 1671 2055 1971 1844 1753 1713 1959 1922
0 491 793 800 899 808 801 865 895 959 1103 1524 1900 1924 1939 1847 1674 1861 1969 1841 1527 1200 1419 1933 1918 1191 1663 2246 2287 2274 2135 1864 1889
0 486 946 1092 1055 1002 1047 1037 991 972 1062 1355 1878 2032 2076 2106 2139 1957 2060 2188 2187 1925 1557 1346 1735 2000 1923 1822 2238 2373 2430 2377 2237
158 567 1055 1307 1298 1203 1260 1207 1141 1062 1022 1159 1797 2058 2125 2288 2303 2449 2342 2306 2362 2399 2294 2049 1747 1464 1951 2051 2133 2372 2515 2544 2484
162 368 834 1189 1382 1391 1427 1341 1273 1167 1128 1166 1275 1722 2211 2332 2560 2553 2635 2617 2521 2526 2525 2659 2579 2250 1964 2152 2092 2154 2552 2731 2698
279 187 518 962 1311 1430 1620 1672 1622 1473 1368 1375 1325 1402 1570 2373 2554 2836 2811 2764 2786 2732 2761 2663 2660 2732 2574 2343 2181 2493 2452 2632 2838
1151 433 211 413 722 1054 1231 1442 1866 1868 1892 1764 1656 1625 1705 1747 2438 2692 2847 2887 2879 2946 2869 2863 2799 2745 2839 2868 2797 2753 2828 2874 2811
1340 1487 1225 1578 2004 1322 770 1076 1116 1997 2076 2109 2019 1903 1800 1865 1955 2262 2676 2823 2951 2967 3096 2975 3003 3032 2974 3069 3147 3168 3176 3179 3300
1130 1365 2138 3066 2771 2736 2686 1589 1314 2289 2366 2413 2321 2368 2454 2448 2546 2301 2498 2694 2831 2985 2988 3178 3224 3231 3352 3370 3334 3466 3548 3607 3639
1175 1201 1854 2700 2744 3024 2981 2616 2473 2560 2768 3001 2720 2384 2472 2537 2847 3139 3119 3034 2985 3002 3181 3184 3315 3437 3503 3613 3748 3804 3833 3858 3852
1231 1190 1042 1742 1994 2191 2414 2645 2894 2700 2907 3042 3103 2931 2945 2907 2565 2831 3009 3245 3404 3432 3510 3617 3650 3732 3829 3886 3940 3939 3898 3906 4009
987 681 617 683 1629 1545 1782 1738 1795 2057 2183 2574 3160 3040 3755 4158 3558 3296 3275 3470 3681 3864 3881 3887 3937 4008 4002 3936 3796 3626 3662 3691 3710
539 146 4 300 677 1159 1456 1482 1327 1099 1316 1623 1799 2752 3328 4037 4048 3843 3697 3768 3637 4086 4134 4181 4154 4038 3842 3685 3488 3428 3413 3506 3286
82 78 0 45 393 837 1228 825 905 1277 1360 1571 1350 2273 2932 3503 3918 4079 3950 3767 3516 3479 3873 3334 3459 3890 3751 3496 3383 3382 3416 3204 2913

GFSFLT1_con_mucape_039.txt.gz
CAPE
129 129 118 285 331 318 292 336 324 276 196 106 160 65 124 76 79 26 64 201 482 667 654 582 725 1093 1273 1081 1122 1379 1155 1201 1061
47 104 113 189 347 375 322 308 295 318 296 225 214 126 228 250 178 201 197 226 201 299 673 649 586 785 1099 1198 1240 1576 1535 1144 955
46 65 100 123 264 348 383 337 287 269 235 307 344 283 326 409 420 416 436 424 418 372 694 697 578 619 905 1255 1418 1594 1579 1366 1020
71 65 105 136 255 361 369 374 306 270 257 247 479 538 501 544 639 648 614 657 606 548 631 648 817 827 829 1017 1108 1270 1482 1566 1356
20 123 194 218 221 350 371 355 360 424 298 311 394 696 644 699 838 984 1013 802 813 784 779 845 837 947 1032 1066 1202 1229 1320 1554 1639
0 153 266 300 250 236 330 334 324 617 561 476 409 716 808 765 766 824 1027 1414 1247 1009 968 934 916 1120 1281 1212 1301 1427 1407 1425 1573
0 16 300 389 353 275 345 405 426 555 871 828 685 816 1027 1110 1104 1008 869 840 1221 1497 1430 1245 1186 972 941 1174 1492 1439 1563 1615 1612
0 0 182 321 353 355 352 435 480 636 1002 1247 1083 1059 1263 1337 1381 1338 1239 1103 1046 1202 1457 1334 1364 1390 1254 1313 1461 1643 1615 1644 1737
0 0 81 180 330 350 382 466 553 518 1002 1510 1469 1365 1349 1372 1365 1457 1477 1421 1326 1234 1201 1510 1374 1275 1290 1305 1574 1716 1841 1877 1916
0 0 69 159 287 446 511 548 634 607 885 1310 1669 1601 1566 1539 1468 1418 1538 1615 1585 1514 1362 1256 1401 1487 1267 1190 1222 1516 2025 2064 1993
0 0 59 316 495 619 647 626 730 737 936 1075 1631 1771 1801 1807 1812 1700 1604 1727 1886 1896 1779 1606 1497 1373 1368 1478 1501 1631 1617 1995 2199
96 191 518 617 686 769 784 836 950 882 977 1152 1363 1747 1920 1988 2016 2036 2079 2020 1975 2107 2160 2172 2074 1963 1830 1666 1535 1759 1971 2075 2145
1227 1284 942 1079 1127 1089 1093 1136 1083 1066 1098 1140 1206 1573 1900 2049 2173 2246 2268 2395 2411 2308 2362 2371 2415 2503 2518 2437 2363 2318 2258 2126 2114
1902 1914 1971 1614 1446 1421 1458 1507 1464 1401 1354 1338 1361 1282 1343 1745 2198 2315 2484 2498 2519 2593 2625 2644 2682 2675 2644 2650 2696 2703 2741 2771 2786
2007 2023 1928 1780 1771 1728 1768 1680 1805 1862 1916 2204 1847 1815 1861 1841 1764 2266 2393 2657 2715 2731 2783 2820 2821 2811 2805 2857 2870 2903 2963 3042 3099
2094 2300 2430 2358 2249 2235 2232 2240 2344 2416 2676 2895 2125 2161 2197 2153 2157 2113 2080 2509 2608 2807 2860 2877 2981 2989 2984 3023 3127 3165 3224 3283 3341
1449 1953 2182 2290 2202 2136 2144 2115 2103 2356 2767 2848 2750 2579 2527 2416 2437 2476 2447 2480 2598 2638 2727 2849 2899 3032 3179 3204 3263 3439 3530 3603 3697
515 650 1340 1433 1510 1642 1663 1698 1736 1737 1821 2058 2825 2911 2904 3638 3234 2483 2679 2997 3093 3070 3087 3046 3075 3183 3290 3420 3514 3672 3788 3907 3930
401 377 304 404 820 968 922 952 893 1172 1258 1233 1304 1848 2798 3229 3879 3580 3138 2847 2754 3240 3543 3565 3652 3717 3769 3886 3971 3921 3653 3518 3472
330 165 15 1 149 641 808 612 911 1310 1486 1470 1018 1632 2114 2949 3622 3924 3632 3493 3366 3275 3495 3865 4019 4081 4016 3917 3510 3397 3164 3146 2840

GFSFLT1_con_mucape_042.txt.gz
CAPE
227 265 276 163 127 120 90 84 55 0 0 0 12 49 20 0 74 0 0 0 0 0 64 327 519 699 823 878 948 879 851 931 849
211 266 283 262 252 214 196 161 180 174 79 42 63 27 36 32 65 95 5 0 10 24 76 261 445 628 927 906 962 948 993 1355 1024
144 205 249 244 224 246 232 240 238 203 265 195 152 136 76 106 115 121 77 39 10 45 125 368 503 570 795 989 1034 1015 1024 1304 1509
84 122 121 116 130 161 184 158 206 224 231 288 245 220 165 130 168 126 117 120 58 65 120 155 360 583 579 899 1069 1142 1111 1345 1505
70 95 95 76 66 108 170 182 180 207 207 244 293 298 279 213 244 266 267 264 183 176 241 259 417 596 582 713 947 1047 1151 1218 1360
0 68 95 80 74 56 131 170 175 176 204 236 236 283 290 258 331 430 445 450 353 342 372 400 383 508 706 776 978 1098 1133 1203 1325
0 6 46 66 77 106 172 216 220 218 258 248 246 397 431 417 482 583 679 682 641 552 569 582 593 610 718 874 1025 1262 1343 1329 1344
0 0 2 38 70 122 178 237 270 374 358 308 274 357 612 602 606 636 697 905 1136 868 770 728 699 731 764 849 1028 1141 1461 1595 1560
0 0 0 7 88 160 172 211 318 388 578 520 428 405 671 758 773 749 710 633 684 1189 1122 1069 1033 1014 1012 854 966 935 1036 1323 1726
132 0 0 0 57 184 188 246 305 373 652 809 765 681 796 993 1069 1116 1050 931 778 779 1011 1252 1125 1054 1030 997 1177 1198 1221 1284 1574
238 191 0 0 91 199 199 273 349 343 723 1184 1148 1069 1100 1235 1295 1299 1308 1288 1192 1114 1099 1103 1283 1397 1234 1113 1031 1004 1324 1411 1403
835 924 0 15 104 217 228 276 380 425 854 1386 1479 1447 1442 1454 1452 1371 1369 1462 1506 1458 1419 1359 1291 1242 1326 1471 1420 1172 1071 1202 1331
746 837 638 14 120 270 363 415 457 575 822 1211 1599 1647 1669 1697 1693 1653 1563 1544 1599 1747 1829 1856 1754 1574 1505 1488 1459 1420 1411 1460 1557
1033 1182 1191 528 572 593 594 592 609 647 814 983 1148 1482 1761 1835 1901 1927 1943 1935 1913 1910 2053 2155 2255 2308 2280 2180 2111 2176 2246 2366 2442
1338 1062 1020 1152 1116 998 908 884 878 879 870 914 969 1229 1610 1885 1995 2128 2201 2225 2322 2404 2364 2405 2478 2510 2562 2576 2654 2543 2587 2643 2725
1859 1613 1672 1662 1432 1428 1432 1410 1438 1588 1940 2000 1309 1301 1390 1483 1926 2157 2374 2493 2512 2553 2623 2684 2681 2714 2745 2790 2776 2744 2762 2854 2966
2006 1743 1705 1657 1815 1892 1901 1845 2001 2218 2505 2217 1828 1816 1797 1826 1998 2051 2238 2426 2641 2771 2732 2740 2871 2938 2933 2922 2957 2997 2976 3079 3180
1123 1413 1764 1609 1533 1511 1644 1895 2059 2178 2425 2586 2536 2768 2812 2275 2287 2315 2347 2340 2346 2446 2656 2776 2874 2913 3060 3113 3153 3199 3183 3394 3516
368 702 1123 1174 1118 1102 1107 1107 1161 1276 1310 1406 1705 2424 2785 3362 3096 2479 2372 2424 2423 2552 2591 2645 2817 2903 3010 3118 3261 3508 3757 3862 3805
197 215 325 471 475 659 450 628 818 707 740 883 881 1121 1571 2565 3527 3361 2859 2555 2624 2641 2570 3108 3287 3397 3652 3809 4059 3641 3642 3466 3378

GFSFLT1_con_mucape_045.txt.gz
CAPE
594 673 549 489 380 533 567 654 802 423 694 771 791 856 1183 1374 1575 779 757 1244 722 691 534 768 1422 1933 1927 2112 2230 2225 2196 1979 1986
587 733 662 581 491 527 713 683 735 786 840 811 771 543 1077 1279 1408 1365 990 1538 1246 747 1192 600 1326 1760 1886 1980 2083 2212 2292 2054 2301
406 624 768 691 640 606 748 633 686 748 773 864 867 760 882 936 1221 1322 1374 1376 1444 1406 903 991 990 1783 1893 2061 2097 2225 2394 2086 2313
107 471 703 765 902 910 777 553 685 772 667 908 835 847 882 1011 981 1012 1143 994 1094 1594 1159 1319 1550 1862 1947 2063 2133 2249 2476 2396 2245
5 189 495 755 816 799 818 999 892 766 840 634 821 869 968 975 964 1021 875 1264 997 1387 1669 1389 1620 1702 1908 2031 2060 2141 2333 2266 1998
12 135 307 510 468 750 1095 1075 1097 987 915 651 582 922 636 851 986 909 1311 1427 1385 1450 1605 1718 1325 1560 1775 1998 2002 2122 2237 2312 2378
0 12 182 333 222 582 925 1056 1197 1207 1018 764 770 738 835 1135 1267 1343 1304 1647 1783 1341 1857 1816 1769 1764 1902 1849 1979 2062 2155 2268 2423
0 0 3 264 352 540 874 1188 1149 1237 1160 1205 1034 1297 1210 1335 1479 1609 1765 1940 2011 1762 1741 1976 2018 1905 1743 1827 1801 1703 2128 2343 2521
24 50 1 26 296 654 781 1092 1143 1144 1235 1300 1359 1509 1498 1623 1737 1855 1941 2108 2182 2040 1971 1953 2180 1835 2059 1924 1656 1059 1156 1739 2301
141 209 446 250 3 682 910 1092 1292 1218 1327 1417 1472 1594 1780 1939 2022 2040 2139 2246 2401 2534 2298 2061 2213 1922 1983 2199 2480 1325 1063 1061 1927
30 118 318 604 314 36 1001 790 881 1246 1277 1571 1595 1726 1892 2128 2198 2173 2260 2320 2382 2575 2514 2608 2519 2198 2295 2304 2526 1589 1168 982 1411
306 330 303 922 890 0 849 1049 1360 1520 1703 1732 1747 1837 1961 2215 2324 2357 2427 2402 2402 2197 2084 2151 2419 2321 2486 2460 2532 1536 1211 1132 1615
750 1005 1111 772 180 5 817 1220 1234 1630 1694 2004 2018 2071 2133 2379 2531 2611 2690 2809 2824 2820 2466 2136 2003 2115 2396 2240 2773 2031 1367 1165 1601
1080 891 879 726 493 1038 1222 1450 1471 1814 2099 2312 2170 2078 2183 2717 2819 2899 3000 3114 3202 2839 2631 2832 2669 2494 2596 2474 2288 2423 1749 1432 1639
1008 801 573 1205 946 1092 1336 1591 1766 2029 2344 2713 2950 3037 2941 3118 3159 2587 2569 3165 3028 2937 3163 3000 3135 3051 2973 2859 2858 2125 2002 2052 2184
1226 921 769 848 1357 1547 1500 1284 1848 1997 2184 2723 2936 3202 3315 3159 3136 2929 3356 3169 3201 2857 3061 2919 3036 3047 3095 3130 3242 3417 2791 2503 2559
1644 1410 1181 993 1040 1281 1545 1891 2122 2286 2479 1972 2390 2995 3261 3299 3268 3058 3269 2930 3001 3016 3088 3125 3180 3257 3318 3375 3540 3684 3662 2914 2726
1158 1318 1834 1404 1324 1337 1437 1647 1829 1989 1971 2630 2300 2231 2503 2646 2704 2815 3181 3287 2802 3191 3497 3150 3387 3518 3570 3638 3751 3722 3496 3647 3498
849 1035 1170 1409 1564 1630 1743 1800 1923 2076 2112 2175 2445 3255 2691 2139 2068 2194 2730 2073 2208 2519 2798 2760 2918 2968 3282 3215 3302 3343 3234 3313 3575
636 517 875 974 1171 1312 1395 1395 1495 1325 1216 1251 1466 1902 2368 2694 2193 1838 2221 2204 2171 2187 2176 2354 2435 2708 2816 2932 3119 3183 3478 3547 3761

GFSFLT1_con_mucape_048.txt.gz
CAPE
621 800 892 940 796 543 653 717 653 631 1173 1817 1837 1575 2257 2422 2191 967 978 1494 1062 834 541 546 877 2160 2208 2414 2371 2425 2527 2549 2147
212 672 896 1044 1062 867 690 813 1241 1360 1688 1749 1532 1136 2209 2423 2344 2152 1370 2390 1474 1063 1541 642 866 1173 1930 1920 2205 2440 2495 2037 2485
111 581 905 1044 1107 1086 870 824 882 900 968 1559 1342 1144 1292 1429 1461 2092 1981 1753 2192 1843 1234 1471 948 1358 1414 1604 2092 2312 2612 2125 2365
26 395 869 1063 1116 1135 1074 870 862 970 1047 1205 1362 1469 1710 1711 1429 1377 1615 1517 1629 1792 1766 1660 1930 1414 1365 1792 2232 2401 2644 2476 2122
24 124 577 887 952 1032 1111 1095 941 953 1026 1083 1236 1862 2306 1683 1770 1762 1350 1712 1629 1883 1967 1939 2036 1862 1740 1707 1867 2348 2690 2608 2041
7 58 229 682 725 932 1068 1198 1219 996 991 987 1063 1443 1257 1224 1330 1349 1827 2022 1901 2143 2003 2151 1929 1965 2068 2007 1796 2288 2594 2655 2556
0 3 54 171 563 743 1150 1414 2168 2022 1230 994 956 1163 1172 1775 1623 1701 1582 2437 2457 1906 2442 2265 2220 2153 2122 2178 1877 1826 2270 2471 2643
0 0 12 149 293 734 1627 2038 2512 2154 1441 1699 1418 2055 1288 1994 2458 2441 2509 2778 2746 2336 2708 2456 2427 2413 2252 2235 1948 1534 2124 2096 2195
0 0 0 0 70 329 806 1362 2230 2536 2532 1956 1922 2548 2185 2482 3012 3033 3057 3239 3339 3164 2898 2840 2617 2481 2417 2348 1931 997 912 1204 1818
37 88 123 236 130 79 448 941 1765 2157 2664 2259 2377 2795 2727 2952 3216 3288 3357 3383 3586 3478 3420 3005 2869 2606 2773 3171 3090 1494 948 961 1681
364 334 357 471 548 657 137 544 857 1489 1699 2769 2813 2997 3027 3188 3404 3253 3539 3631 3702 3858 3273 3453 3294 2894 3398 3600 3312 2066 1619 1108 1936
333 430 568 774 862 924 1124 289 723 1500 1444 2019 2626 2992 3226 3308 3405 3333 3362 3484 3638 3428 3243 3312 3209 2980 3532 3733 3773 2129 1896 1684 1993
213 271 526 876 1398 1639 1392 1397 525 1044 1532 1896 2736 2909 3154 3460 3571 3572 3592 3673 3728 3798 3347 3204 2877 2995 3378 2876 3425 2700 2098 1729 2202
339 452 462 1205 1626 1727 1543 1177 629 2064 2110 2299 2636 2214 2318 3058 3437 3822 3680 4051 4039 3914 3382 3378 3686 3376 3697 3685 3245 3250 2421 2049 2349
928 770 813 1682 1224 841 699 562 1774 2847 2827 2782 3047 3111 3070 3566 3839 2883 2856 4149 3936 3781 3737 3843 3935 3691 3391 2969 3289 2457 2608 2365 2096
935 1150 983 1515 1589 1150 1151 1470 1846 2265 3089 3177 3055 3139 3654 3438 3445 3355 3975 3969 3998 3463 3803 3320 3245 3226 3163 2979 3037 3460 2588 2330 2167
1078 1005 957 1211 1495 1922 2028 1773 1815 2094 2538 3586 3205 3305 3579 3326 3350 3280 3314 3331 3380 3261 3239 3238 3137 3208 3240 3223 3361 3642 3958 3077 2789
1096 1060 939 1056 1046 1226 1533 1687 1793 2267 2655 2698 2984 3164 3240 3366 3382 3293 3390 3290 2923 3181 3667 3055 3314 3323 3460 3571 3703 3823 3742 3941 4049
1215 1298 1109 948 951 1152 948 902 979 1135 1943 2709 2447 2530 2735 2927 2939 3255 3293 3445 2494 2587 2804 2814 2922 2982 3288 3330 3394 3484 3519 3521 3717
918 967 997 1029 1208 1255 1336 1535 1659 1661 1777 1951 2879 2848 3544 2583 2448 2803 2496 2503 2264 1929 2530 2753 2849 2980 3165 3482 3229 3393 3410 3208 3260

GFSFLT1_con_mucape_051.txt.gz
CAPE
720 765 617 601 625 600 1107 1236 1386 1456 2285 2868 2901 2315 2256 2073 2413 662 194 1373 777 519 336 506 3533 2537 2185 2421 2516 2176 2778 2188 1983
314 713 829 776 683 708 1098 1287 1619 1617 2264 2767 2768 1498 2390 2653 2397 1627 540 1169 2406 1517 1865 634 1654 2309 2203 2234 2041 2811 3266 1823 2405
270 430 769 872 948 845 817 927 1244 1463 1796 2570 2651 2123 2406 2427 2591 2774 2210 2527 3129 2310 2347 2502 1366 1749 1787 2049 2503 2703 3776 2631 3186
57 185 603 842 1017 1122 977 915 1028 1150 1487 2011 2153 2347 2348 2005 1994 2142 2524 2859 3057 3072 2771 3157 2950 2433 2315 2322 2293 2936 3858 3620 2704
0 61 434 842 941 1199 1270 1145 1031 1192 1127 1158 1735 2041 2692 2326 2195 2141 2092 2457 2875 3291 3450 2907 3098 3081 2904 2621 2453 3352 3583 2795 2274
0 12 169 724 880 1081 1263 1352 1578 1113 1165 1016 1084 1970 1926 2295 2079 2342 2095 2737 2721 3223 3449 3601 2322 3304 3539 3035 2723 3310 3596 3690 3175
0 29 251 394 796 831 1145 1776 2251 2114 1383 1050 937 1278 1389 2189 2407 2444 2233 2556 3061 3126 3537 3717 3574 3761 3664 3241 2987 2868 2817 3280 3489
0 0 80 235 573 1427 2261 2289 2718 2621 1750 1961 1413 1795 1665 2160 2647 2528 2676 2586 3199 3256 3579 3629 3930 3955 3740 3527 2637 1963 2839 3314 3494
0 0 0 33 164 430 1319 2423 2816 2886 2535 2340 1938 2258 1966 2160 2715 2756 2765 2826 3277 3643 3760 3838 3987 3941 3918 3638 2164 1302 1039 1977 2906
16 21 0 22 0 190 372 906 2405 2488 2939 2418 2639 2836 2491 2717 3146 3153 3179 3211 3544 3763 3865 4080 4223 4114 4035 3977 3793 1586 1016 836 1971
745 516 154 223 240 191 110 429 810 1800 2148 3205 3170 2949 3471 3000 3496 3449 3616 3706 3741 3914 3955 4008 4174 4275 4288 4216 4080 2406 1699 1032 2303
799 830 827 812 808 720 778 332 408 1834 1910 3356 3179 3554 3548 3480 3582 3743 3927 3968 3992 4080 4111 4138 4173 4311 4440 4423 4283 2510 2178 1741 2308
885 751 746 898 1020 1057 1130 1254 868 668 1645 2391 3322 3632 3526 3751 3725 3956 4004 4079 4207 4353 4268 4250 3707 4116 4362 4032 4562 3513 2395 2050 2290
220 533 807 1022 1402 1454 1684 1791 1459 1633 1782 2409 3104 3374 3695 4015 3965 4135 4187 4331 4378 4417 4381 3702 4356 4199 4285 4371 4085 4397 2912 2405 3083
211 451 531 665 2126 2244 2229 2223 2653 2735 2327 2741 3370 3622 3712 4061 4235 3789 3599 4467 4458 4488 4489 4468 4624 4512 4312 3722 4499 3280 3291 2834 2418
414 649 873 1041 1950 2547 1508 2331 2797 3160 2416 3887 3725 3907 3935 4135 4282 4269 4213 4405 4555 4065 4443 3358 3537 3437 3160 2877 3116 3685 2769 2779 2700
641 710 983 1189 1573 2722 2708 2671 2161 2648 4450 4035 4188 4149 4092 4254 4222 4268 4206 3681 3740 3253 3162 3215 2913 2935 2661 2370 2267 2077 2842 2421 2372
917 1048 1074 1093 1415 1509 1710 1743 2131 2388 3221 3887 3525 4077 4137 3934 3618 3404 3952 3968 3116 3337 2418 2499 2920 2239 1834 1579 2063 1879 2177 3012 3334
824 1017 1068 1033 1058 1172 1224 1798 1961 2024 2168 3651 3524 3696 3336 3481 3036 3404 3548 2749 2535 2491 2512 2490 2435 2401 2364 2836 2320 2547 2754 3310 3742
779 838 967 1116 1041 884 923 983 1397 1609 1942 2228 3270 3343 4075 3341 2908 3269 3721 3442 2760 2621 2621 2601 2556 2666 2770 2750 3338 3205 3300 3380 3492

GFSFLT1_con_mucape_054.txt.gz
CAPE
168 723 620 604 585 616 567 473 632 762 1417 1445 1507 2029 1329 1464 2130 983 1259 2149 1395 2169 1929 1830 2625 3166 2742 3324 3277 3199 3339 2713 2754
103 124 456 598 714 681 715 722 714 1073 1431 1685 1808 1462 1878 1168 1967 1786 757 1615 2109 2256 2074 1772 2696 2876 3369 3243 3213 2918 3410 2710 2901
8 91 138 345 776 822 1007 872 1026 1056 1552 1737 1959 1688 1740 1488 991 1543 1617 601 1661 1628 2803 2596 2857 3060 2878 3165 3395 3274 3465 2930 2992
2 104 155 154 378 1012 1063 1091 1297 1119 1400 1866 2135 2123 1659 1501 1263 1185 998 1587 538 2529 1910 3855 3283 3613 3248 2900 2952 3459 3681 3107 2973
280 467 328 111 387 399 1083 1184 1218 1315 1268 1882 2069 2188 1804 1581 1615 1224 1139 644 2176 1973 3313 2782 4287 3302 3819 3032 3009 3089 3202 3196 2062
55 570 379 124 49 452 1104 1105 1250 1424 1361 1300 1981 2277 1914 1863 1650 1748 1662 1189 1175 2358 2180 3048 2535 3637 3050 3246 2682 2857 3185 3198 2892
10 156 272 263 637 646 1263 1284 1312 1360 1449 1385 1437 1953 2027 1992 1752 1659 1390 1862 1282 2126 2709 2522 2796 2762 3212 3106 2704 2534 2972 3272 3160
66 102 68 192 346 419 1158 1799 1649 1516 1555 1379 1386 1682 1753 2001 2214 1902 1685 1705 1943 1549 2086 2545 2854 2844 3113 3108 2845 2330 2499 2735 3191
0 0 149 197 25 1758 1548 2064 1888 1790 1680 1619 1498 1521 1664 1893 2166 2090 2106 1799 2045 2206 2128 2561 2852 3060 3067 3275 2767 2108 1556 2084 2401
4 0 44 182 257 271 641 1589 2168 2072 1936 1831 1735 1803 1791 1901 2309 2451 2165 2374 1919 2436 2329 2526 2847 3080 3255 3273 3198 2049 1452 1367 2043
3 54 315 1099 140 367 653 290 719 2562 2392 2202 2221 1977 2279 2047 2384 2385 2499 2294 2424 2131 2523 2550 2877 3142 3273 3424 3349 2652 1777 1249 1335
6 56 318 905 615 659 1229 1172 1263 2358 2883 2484 2354 2372 2372 2304 2224 2420 2405 2376 2355 2335 2675 2848 2888 3135 3417 3450 3497 2968 2341 1739 1208
29 940 941 792 689 688 853 1270 1232 1326 2195 3019 2364 2375 2543 2829 2210 2706 2564 2542 2575 2650 2837 2980 3009 3127 3307 3348 3558 3270 2749 2237 1820
493 531 741 820 1008 1273 1527 1620 1660 1702 1644 2152 3102 2493 2780 2977 2880 2731 3071 3139 3107 3104 3238 3218 3306 3238 3357 3659 3534 3704 3111 2580 2170
377 382 330 456 892 1158 2187 2540 1881 1847 2287 2431 2962 3323 2850 3679 3587 2973 3346 3522 3649 3570 3543 3678 3616 3723 3757 3767 4011 3322 3480 3137 2480
131 33 169 431 606 1512 3364 2684 3210 2236 2616 2982 3897 3794 3215 3605 3701 3731 3423 3774 3781 3831 3852 3758 3636 3715 3632 3672 3660 3829 3195 3139 3192
110 213 362 581 884 1128 1067 1468 1980 3623 3098 3370 3458 3567 3681 3589 3948 3792 3537 3840 3786 3880 3805 3834 3734 3391 3566 3436 3526 3561 3803 3143 2910
264 308 359 646 679 818 993 1409 1624 1907 1887 3149 2842 3926 3705 3573 3695 3430 3814 3499 3727 3797 3668 3536 3514 3361 3147 3445 3215 2911 2657 2909 2612
385 409 427 579 640 760 1054 1475 1802 1917 2238 2786 4105 3749 3693 3488 3568 3615 3744 3301 2971 3177 3300 2819 2985 2882 2927 2421 2272 1991 1826 1525 2403
350 322 342 343 507 677 605 1360 1761 2034 2329 2518 2989 3896 3632 3519 3248 3436 3553 3159 2818 2878 2893 2743 2253 2495 2446 2505 2614 2630 2473 2241 1484

GFSFLT1_con_mucape_057.txt.gz
CAPE
349 332 378 318 326 260 185 181 127 247 331 681 724 250 170 533 794 85 372 954 1374 1235 1367 1228 1803 1494 1660 1345 1672 1579 1552 1234 1417
567 366 366 313 418 313 273 228 195 223 317 322 852 658 99 264 1118 172 201 393 597 742 1283 1099 1245 1720 1502 1751 1797 1756 1781 1142 1597
462 518 521 501 479 438 243 259 245 267 420 336 704 761 526 101 360 1070 141 208 395 643 279 649 1378 2119 1568 2012 1711 1435 2069 1274 1700
526 395 419 291 350 478 444 212 225 332 698 524 561 547 825 325 124 741 816 271 61 528 430 1785 1936 1946 2164 2178 2077 1837 1669 1605 1838
447 498 416 283 194 205 414 421 360 348 556 825 801 734 639 829 263 236 604 561 155 0 613 667 1979 2009 1864 1847 1896 2083 2013 1919 1823
374 490 332 211 100 189 477 542 460 515 491 910 1001 1073 719 878 728 155 394 187 473 312 735 668 1455 1963 1859 1812 1654 1624 1936 1881 1880
277 457 275 246 163 150 487 501 606 512 528 768 1012 1162 1203 924 797 689 93 138 12 865 439 1975 1553 2134 1676 1818 1513 1767 1773 1982 2057
82 221 253 207 98 145 310 176 551 753 678 557 1031 1230 1332 1204 950 697 670 210 176 0 1199 554 1620 1625 2259 1769 1954 1549 1653 2147 2133
12 104 147 82 46 8 198 79 509 704 791 759 659 1290 1440 1375 1155 945 798 807 866 488 107 1541 1014 1255 1719 2268 2048 1972 1641 1584 2290
27 44 129 233 141 101 175 291 34 10 787 887 856 875 1383 1420 1300 1230 988 893 780 1091 782 476 1741 1654 1747 1815 2157 2133 2051 1680 1483
3 32 205 185 278 431 412 304 358 398 466 886 982 987 1094 1382 1378 1347 1348 1141 1012 954 1119 847 830 1449 1857 1930 1983 2375 2165 1986 1586
13 1 104 114 115 207 438 419 142 285 195 579 948 1083 1086 1326 1318 1392 1507 1350 1229 1013 1209 1337 1128 1471 1805 2063 2143 2349 2519 2184 1719
0 0 0 55 26 46 80 682 655 218 5 76 1007 1446 1324 1265 1265 1511 1516 1474 1275 1449 1090 1152 1557 1388 1721 2117 2177 2367 2509 2467 2135
0 0 0 75 185 160 297 504 908 793 186 82 889 1335 1505 1656 1350 1507 1570 1621 1502 1406 1525 1324 1378 1668 1681 2044 2371 2383 2622 2659 2373
0 0 0 81 64 64 140 736 1602 1740 1684 1308 1542 2069 1881 1675 1771 1485 1713 1599 1648 1536 1506 1554 1562 1816 1938 1958 2325 2568 2680 2744 2713
0 4 0 23 6 10 117 445 1032 981 1816 2247 2142 2453 2348 2259 2325 1790 1853 1752 1711 1752 1777 1781 1938 1989 2113 2166 2281 2614 2732 2791 2855
1 35 36 1 28 87 133 323 647 549 1061 2209 2276 2504 2916 2428 2570 2356 1896 2290 2054 2170 2215 2224 2138 2282 2279 2388 2419 2647 2959 3023 2927
12 8 5 6 54 91 109 284 550 738 696 1182 1983 2237 2946 2750 2479 2715 2398 2452 2592 2521 2538 2499 2444 2414 2457 2423 2633 2525 2792 3051 3114
39 26 17 9 76 158 210 331 486 724 1016 1166 1448 1586 2518 2923 2445 2875 2711 2535 2683 2888 2850 2858 2695 2622 2624 2636 2488 2714 2645 2779 3058
58 56 26 49 39 77 396 408 545 556 1079 1388 1706 2019 2417 2924 2573 2651 2788 2693 2457 2619 2918 2895 2913 2873 2831 2761 2712 2483 2771 2793 2600

GFSFLT1_con_mucape_060.txt.gz
CAPE
417 360 287 275 222 222 233 120 84 364 357 256 211 366 443 467 180 133 211 517 731 1022 1220 1319 1583 1274 1139 1318 967 927 752 1192 966
204 194 414 363 343 277 279 178 155 134 390 239 182 126 134 351 697 165 121 661 1122 1090 1046 1103 1506 1462 1249 1317 1276 1028 913 1038 868
218 388 420 431 482 414 377 325 251 87 176 356 310 153 63 28 334 755 282 63 559 1347 1205 1057 1037 1456 1257 1237 1083 1237 1147 897 910
150 408 337 419 500 393 392 401 351 274 142 135 516 476 215 59 36 300 843 154 65 414 860 1129 1152 1363 1341 1168 1293 1319 1465 1191 923
199 268 387 426 469 451 349 392 367 306 198 165 117 549 479 241 26 64 544 764 62 35 293 651 1065 1481 1374 1253 1375 1195 1109 1407 1375
401 418 511 481 400 320 159 229 330 393 328 286 219 275 479 463 213 12 103 486 638 210 23 218 1542 1652 1697 1420 1412 1550 1438 1346 1348
361 342 332 396 176 62 14 12 314 410 410 525 368 275 401 477 582 217 5 115 350 465 341 1 394 1703 1643 1521 1643 1738 1675 1660 1540
49 195 187 173 115 37 27 2 4 404 479 456 620 543 549 415 586 643 335 102 116 132 317 281 137 888 1616 1524 1336 1222 1160 1245 1391
28 81 139 108 55 324 324 154 99 320 522 462 806 831 814 792 524 703 698 533 345 56 0 368 336 1050 1239 1402 1525 1330 1338 1256 1348
4 18 84 81 57 191 233 220 60 110 411 375 613 936 968 1032 1015 791 727 703 646 522 268 0 527 445 1291 1536 1481 1531 1396 1282 1238
0 0 4 73 45 165 267 271 119 178 154 143 679 700 1137 1276 1255 1182 1046 920 869 776 641 428 13 718 637 966 1513 1838 1725 1598 1484
0 0 0 0 93 172 300 140 151 70 265 575 236 668 990 1222 1509 1386 1303 1209 1089 966 833 723 531 295 1247 1110 1036 1310 1737 1837 1775
0 0 0 0 0 70 160 433 201 336 366 203 655 744 1025 1087 1001 1456 1405 1310 1253 1118 1020 868 856 633 455 1191 1546 1598 1590 1822 1600
0 0 0 0 0 0 164 145 575 707 611 393 84 117 725 1128 1167 1000 1385 1350 1287 1235 1128 1036 976 987 843 902 1173 1349 1664 1743 1723
0 0 0 0 0 0 4 154 334 694 762 693 379 36 70 321 687 801 1164 1338 1347 1297 1231 1158 1053 1113 1269 1109 1256 1629 1718 1884 1992
0 0 0 0 0 0 0 230 84 21 211 583 531 423 1006 585 1178 1347 1202 1273 1285 1325 1252 1344 1250 1105 1082 1373 1419 1541 1856 1931 2022
0 0 0 0 0 0 0 0 6 0 59 260 244 146 382 1342 1651 1650 1473 1304 1298 1365 1335 1295 1351 1362 1291 1341 1547 1670 1842 2042 2251
0 0 0 0 0 0 0 0 9 21 57 160 345 407 591 1136 1813 1797 1687 1637 1504 1510 1434 1400 1383 1372 1432 1506 1624 1719 1927 2080 2166
0 0 3 13 2 0 0 1 38 13 44 184 254 613 713 947 1997 2063 2094 1913 1913 1804 1657 1621 1654 1491 1608 1720 1824 1960 2090 2185 2466
5 0 55 32 8 0 0 0 7 65 19 77 180 387 822 1116 1505 2378 2494 2426 2127 2131 2015 1978 1935 1884 1862 2006 2114 2123 2247 2398 2394

GFSFLT1_con_mucape_063.txt.gz
CAPE
186 48 55 229 151 91 78 169 82 219 92 61 129 120 66 41 0 110 415 409 473 404 779 1121 1165 1139 971 1141 693 838 823 1186 1112
232 186 166 157 220 164 107 188 204 173 142 49 85 112 71 50 3 6 198 314 342 488 710 1010 1193 1192 1083 1167 1024 873 1057 754 1047
295 331 308 241 229 217 169 231 224 186 174 95 48 82 65 66 96 21 16 117 246 662 727 1005 1028 1262 1243 1181 1219 1171 952 878 1030
181 202 326 368 306 201 204 209 243 217 219 209 131 131 114 61 73 305 307 98 73 215 969 1124 1063 1097 1367 1316 1293 1254 1237 1100 953
44 99 205 335 278 242 264 209 171 207 252 261 266 230 149 73 18 7 300 342 237 86 51 477 988 1092 1117 1257 1359 1249 1160 1305 1274
388 320 250 187 243 198 203 198 211 279 257 207 206 255 230 160 14 0 9 189 373 301 63 27 307 621 1032 1198 1188 1240 1188 1282 1239
465 426 394 243 209 192 220 164 241 178 229 229 233 195 319 241 179 85 28 0 115 337 329 133 26 873 1218 1266 1178 1221 1255 1214 1208
15 388 599 424 247 162 85 100 114 59 57 130 185 227 234 341 305 244 142 27 0 58 191 212 184 115 1164 1495 1550 1428 1314 1353 1414
0 24 133 207 296 253 98 46 46 79 0 68 179 333 365 328 341 339 297 211 88 52 6 72 102 117 98 1000 1314 1492 1416 1399 1501
0 0 58 67 109 201 88 3 8 136 18 16 257 351 422 413 407 419 469 464 405 255 169 119 24 27 154 215 737 1225 1347 1264 1217
0 0 1 12 25 114 13 74 55 208 106 113 107 610 526 535 536 494 516 558 579 562 453 341 274 210 63 389 541 785 1199 1308 1353
0 0 0 0 0 15 109 63 117 167 256 224 320 171 399 768 756 743 731 721 742 724 700 636 579 500 385 285 260 811 1140 1254 1286
0 0 0 0 0 0 132 100 112 104 182 355 327 140 185 362 1017 993 987 987 972 931 897 922 893 823 663 564 431 256 893 1346 1239
0 0 0 0 0 0 0 1 28 104 139 155 309 538 226 495 599 1248 1367 1324 1216 1188 1250 1141 1070 1041 869 743 589 583 546 723 879
0 0 0 0 0 0 0 0 18 54 88 124 372 519 541 264 419 704 962 991 1300 1196 1259 1104 1211 1144 1047 901 775 673 888 1149 1152
0 0 0 0 0 0 0 0 1 65 21 49 65 196 132 211 498 739 635 668 711 1261 1245 1230 1173 1206 1163 1004 898 861 825 795 1047
0 0 0 0 0 0 0 0 0 0 0 0 0 119 84 35 53 403 1106 1189 1212 1166 1244 1284 1234 1208 1201 1077 970 1078 1039 1002 1204
0 0 0 0 0 0 0 0 0 0 0 0 0 0 49 49 104 252 1074 1368 1468 1245 1257 1271 1286 1259 1262 1214 1075 1010 1195 1261 1262
0 0 0 0 0 0 0 4 0 0 0 0 0 0 28 29 20 142 330 1375 1574 1378 1377 1395 1445 1461 1375 1310 1198 1131 1138 1364 1422
0 0 0 7 0 0 4 3 2 0 0 0 0 11 0 0 15 15 158 620 1750 1688 1366 1467 1454 1494 1559 1522 1370 1293 1283 1376 1520

GFSFLT1_con_mucape_066.txt.gz
CAPE
333 459 401 215 142 95 79 37 28 43 72 0 0 51 164 181 52 116 182 187 191 141 403 739 885 940 931 733 719 598 498 687 937
199 326 426 359 172 151 92 84 89 93 195 51 0 40 49 78 3 6 187 350 303 336 405 627 906 914 821 835 867 651 738 683 749
38 257 280 362 371 238 157 95 89 108 190 145 18 79 51 11 38 0 7 138 286 293 326 528 853 1012 937 879 1041 915 725 775 773
0 227 232 182 67 88 182 172 85 79 132 252 92 91 85 52 37 0 0 0 110 210 325 494 637 981 953 899 883 1069 1085 815 828
100 141 285 346 313 95 62 147 211 151 126 190 154 174 131 86 61 36 0 0 0 8 150 462 906 990 1005 966 1019 1004 1093 1085 1146
354 236 141 184 170 326 252 135 159 162 183 159 195 161 229 154 71 0 108 60 2 0 4 40 100 540 790 1037 1036 1050 1114 1192 1267
596 571 415 372 228 203 254 190 172 139 132 118 115 141 207 218 158 118 16 17 52 13 0 0 38 233 549 895 976 1065 1147 1075 1125
109 365 480 249 347 220 173 129 144 140 94 115 167 186 235 219 196 149 92 46 2 32 0 0 0 10 496 947 1075 974 1165 1220 1139
0 0 29 365 339 263 229 130 97 92 96 161 174 134 149 269 249 197 96 111 78 28 22 0 0 0 71 594 927 1125 1213 1293 1320
0 0 0 60 284 399 266 131 115 100 73 117 88 107 139 174 301 289 277 188 146 148 101 24 8 0 0 163 481 588 1062 1198 1243
0 0 0 0 0 21 184 195 122 161 104 147 116 62 248 185 245 275 335 310 273 278 269 214 149 82 44 2 73 207 499 845 845
0 0 0 0 0 0 14 60 106 166 144 247 260 108 156 502 339 435 411 389 461 465 451 438 384 332 246 186 157 48 142 269 382
0 0 0 0 0 0 0 22 45 88 99 203 196 280 333 107 404 655 671 648 592 562 588 630 621 596 604 565 512 440 379 241 189
0 0 0 0 0 0 0 0 0 3 38 143 98 214 184 321 79 271 850 840 782 788 825 793 791 775 845 912 870 798 687 605 427
0 0 0 0 0 0 0 0 0 0 7 10 27 9 77 112 117 126 220 991 1100 942 970 984 1108 945 934 1071 1075 991 907 766 584
0 0 0 0 0 0 0 0 0 0 0 3 0 0 0 0 36 110 217 349 819 1436 1351 1176 1072 986 915 1009 1075 1075 1039 945 771
0 0 0 0 0 0 0 0 0 0 0 7 0 12 0 0 0 1 47 375 570 469 865 1045 1022 905 873 884 944 1018 1055 1003 883
0 0 0 0 0 0 0 0 0 0 0 15 0 0 0 0 3 5 160 222 620 1474 869 770 1166 1136 1105 1024 992 1048 1090 1082 1008
0 0 0 0 0 0 0 0 0 0 0 14 0 0 0 0 0 0 5 13 74 676 1383 1372 1226 1107 1167 1242 1251 1261 1237 1194 1067
0 0 0 0 0 0 0 0 0 0 11 8 5 1 0 0 0 0 0 0 14 69 511 1345 1333 1209 1180 1242 1224 1265 1268 1312 1170

GFSFLT1_con_mucape_069.txt.gz
CAPE
448 753 558 380 254 249 355 365 440 438 429 538 614 776 1214 1353 1136 1014 1057 1390 1089 1234 1312 1544 2111 2235 2207 1981 1900 1742 1819 1838 1754
269 684 759 572 373 317 370 437 495 508 563 589 566 623 1069 1072 1107 1101 1215 1262 1352 1132 1481 1356 1933 2203 2228 2053 1981 2009 1944 1596 2049
98 354 799 753 535 349 334 447 491 496 603 675 687 603 743 755 789 989 1106 1288 1489 1385 1495 1673 1643 2012 2194 2241 2218 2110 2101 2001 2009
295 561 390 703 669 458 364 324 372 418 537 626 627 591 900 789 629 617 814 862 1244 1572 1684 1791 1922 2067 2085 2279 2256 2356 2320 2108 1938
198 359 365 445 558 334 393 320 299 302 435 489 519 802 1069 816 900 676 578 690 816 1328 1645 1730 2003 2066 2222 2354 2287 2343 2425 2296 1868
326 160 228 368 429 391 247 323 281 189 252 414 337 518 560 746 749 751 740 812 726 876 1186 1596 1611 2152 2298 2389 2390 2456 2412 2378 2335
391 409 353 164 201 290 355 231 225 268 259 240 376 415 336 630 578 780 865 1340 1055 798 1085 1121 1304 1621 1928 2323 2436 2434 2400 2437 2484
26 333 238 248 205 164 212 192 251 211 219 225 301 555 587 620 863 795 500 758 1435 1121 946 1078 1175 1143 1272 1525 1639 1670 2190 2370 2371
0 0 85 254 223 263 338 182 109 133 146 150 147 213 664 912 1203 1202 1141 1070 1005 1412 1179 1057 1165 998 1053 1170 935 485 865 1625 2183
0 0 0 1 282 208 122 58 149 106 87 125 178 239 215 644 1021 1174 1335 1011 1095 1315 1310 1386 1256 1015 1125 1398 1557 503 483 889 1548
0 0 0 0 0 57 151 136 148 73 108 123 119 614 233 466 830 954 1170 1062 1144 1274 1062 1303 1374 1126 1209 1336 1209 465 343 630 1314
0 0 0 0 0 0 0 24 30 102 124 112 121 304 532 774 805 880 934 1085 1469 1158 912 977 988 993 1197 1221 1236 199 115 154 927
0 0 0 0 0 0 0 0 0 10 80 168 161 188 186 362 659 464 1256 1096 1188 1249 1230 980 817 723 861 721 1257 517 186 126 295
0 0 0 0 0 0 0 0 0 0 9 123 181 100 52 46 51 402 365 605 1576 1317 1299 1335 1298 1025 1069 1062 794 939 559 490 510
0 0 0 0 0 0 0 0 0 0 0 0 4 140 85 65 28 65 255 537 424 1635 1825 1864 1679 1673 1320 1057 1152 795 862 875 785
0 0 0 0 0 0 0 0 0 0 0 0 0 0 9 2 5 10 40 438 611 681 965 1674 1893 1603 1488 1563 1491 1270 902 978 970
0 0 0 0 0 0 0 0 0 0 0 0 0 0 9 3 0 4 10 37 214 474 573 976 1394 1668 1644 1633 1701 1673 1555 1004 1020
0 0 0 0 0 0 0 0 0 0 0 0 0 0 0 18 0 1 9 5 21 412 836 708 693 1187 1525 1455 1667 1603 1373 1426 1225
0 0 0 0 0 0 0 0 0 0 0 0 0 0 0 0 2 1 7 6 0 0 0 69 604 1142 750 1234 1246 1181 1123 973 952
0 0 0 0 0 0 0 0 0 0 0 0 0 0 33 0 1 0 0 5 8 2 0 32 74 331 1130 1138 834 951 1110 968 959

GFSFLT1_con_mucape_072.txt.gz
CAPE
151 1247 1071 878 798 718 693 600 694 820 1104 1515 1535 1541 1781 1967 1862 1563 1456 1380 806 1183 1153 1360 1720 1967 1628 1797 1767 1668 1679 1622 1329
458 1164 1202 990 907 849 806 860 832 1020 1156 1618 1617 1470 1639 1919 1963 1788 1189 1266 1411 1138 1225 1204 2083 1545 1496 1513 1952 2082 2284 1786 1811
640 785 1117 1233 1000 970 871 935 959 1084 1199 1539 1707 1599 1573 1646 1775 1885 1707 1583 1720 1411 1107 1611 1635 2226 2015 1682 1987 2395 2501 1508 1936
636 644 1043 866 1158 890 926 1010 1057 1087 1182 1304 1585 1610 1567 1563 1548 1579 1767 1685 1730 1784 1522 1653 2127 2219 2316 2188 1921 2210 2768 2080 1686
474 661 527 924 669 1183 740 877 983 1060 1177 1185 1331 1439 1634 1627 1673 1531 1350 1610 1563 1624 1719 1709 2158 2562 2368 2460 2174 2516 2576 2086 1656
224 422 857 432 719 793 640 538 751 825 941 1004 926 1229 1333 1405 1404 1419 1431 1361 1544 1506 1593 1732 1837 2121 2494 2403 2333 2771 2804 2255 2044
173 220 177 344 516 448 299 447 562 420 494 857 885 1098 1128 1268 1256 1276 1417 1499 1538 1509 1616 1649 1755 1978 2189 2280 1790 2225 2486 2677 2293
248 129 205 203 154 299 305 226 194 103 120 122 609 927 1199 1205 1312 1370 1402 1542 1787 1723 1648 1622 1621 1624 1765 2043 2112 1563 2156 2626 2517
0 179 285 128 118 175 186 292 259 261 184 168 239 754 799 1089 1500 1574 1598 1592 1538 1796 1888 1869 1761 1636 1439 1436 1282 939 1108 1783 2514
0 0 0 20 216 167 104 125 241 202 204 131 123 199 730 885 1125 1572 1695 1779 1788 1704 1626 2045 2299 1862 1772 1957 1830 505 531 827 1475
0 0 0 0 0 80 169 221 216 68 61 64 90 225 208 636 710 1050 1545 2168 1931 1868 1812 1854 1994 2169 2489 2469 2060 773 448 379 1299
0 0 0 0 0 0 0 44 121 95 142 146 98 140 163 112 317 1082 1209 1397 2062 1969 2043 1921 1759 1772 2302 2576 2563 1033 636 403 1055
0 0 0 0 0 0 0 0 0 0 121 88 104 122 123 137 118 175 548 1279 2072 2548 2165 2021 1764 1765 1856 1518 2258 1492 926 422 787
0 0 0 0 0 0 0 0 0 0 0 0 1 31 28 105 125 72 98 415 1746 1843 2300 2563 2397 2111 2148 1947 1808 1781 1165 809 894
0 0 0 0 0 0 0 0 0 0 0 0 0 4 46 71 33 64 44 36 41 1006 2297 2528 2487 2815 2167 2021 2134 1274 1229 926 630
0 0 0 0 0 0 0 1 2 0 0 0 0 0 6 15 114 65 44 5 38 55 997 1547 2451 2865 1990 1926 1984 2204 1376 1091 840
0 0 0 0 0 0 0 0 0 10 9 0 0 0 0 0 2 35 25 6 12 15 29 436 958 1511 2495 2636 1974 2150 2301 1659 1400
0 8 0 0 0 0 0 0 0 0 0 0 0 0 0 0 0 0 15 1 0 0 0 53 358 1230 1661 1910 1832 1849 1878 1874 2328
23 24 0 0 0 0 0 0 0 0 0 0 0 0 0 0 0 0 0 0 0 0 0 0 17 44 196 648 967 1120 1193 1266 1152
18 0 0 0 0 0 0 0 0 0 0 0 0 0 0 0 1 13 0 0 0 0 0 0 0 2 0 0 359 650 733 766 1006

GFSFLT1_con_mucape_078.txt.gz
CAPE
1182 1005 646 651 489 826 435 171 225 1220 1993 2258 2359 2248 2613 2526 2665 1995 1633 713 1731 1120 326 1303 2102 2417 2930 2915 2650 2695 2911 2856 2748
272 717 513 354 756 940 456 568 284 1275 2252 2597 2599 2383 2800 2718 2545 2294 2486 2568 3304 1543 635 1724 1524 2138 2569 2709 2001 3076 2801 1935 2514
118 414 467 295 323 450 340 747 380 1303 2217 2571 2611 2417 2584 2731 2769 2979 2838 2997 3087 2817 951 386 343 534 1529 2784 2104 2290 2609 2735 1292
76 115 263 267 270 315 343 366 327 164 1933 2534 2677 2628 2545 2543 2605 2780 2827 2833 3232 2870 2394 1007 434 91 663 1419 2734 3045 2972 2205 1847
182 190 200 43 0 27 298 251 185 309 267 866 2215 2439 2574 2634 2798 2771 2920 2873 2868 3315 3148 2959 971 733 1104 1454 2456 2515 2862 2413 2095
127 171 221 218 117 240 117 152 179 237 229 274 558 1264 2499 2592 2534 2820 2833 3131 2910 3163 3237 3145 2555 2655 3267 3096 2424 2679 2368 2858 2826
67 138 261 231 187 199 216 150 142 222 134 130 214 569 951 1443 2376 2389 2425 2940 2987 2790 3321 3007 2781 2901 3099 2794 2901 2863 2644 2683 2957
82 105 110 184 304 142 140 56 25 85 168 101 105 192 295 267 831 2389 3128 2904 2707 3013 2910 2960 2987 2886 2644 2841 2499 2046 2613 2977 2803
17 43 30 97 97 156 201 143 145 184 98 188 299 343 198 29 379 857 1377 2278 2629 3405 3012 2943 2802 2880 2788 2523 2362 1387 1121 2093 2694
0 0 21 17 41 63 53 102 45 86 135 108 157 40 193 155 146 35 513 1540 2471 3029 2994 3037 2933 2888 2845 2796 2660 1647 675 587 1933
0 0 0 0 0 0 0 3 15 0 74 76 60 69 90 117 162 268 533 748 930 1350 2534 2778 2769 2670 2853 3051 2905 2143 1591 1121 961
0 0 0 0 0 0 3 61 57 65 22 34 30 34 62 83 246 215 203 206 525 637 837 1938 2238 2231 2442 2785 2984 2409 2026 1592 1107
0 0 0 0 0 0 0 0 0 17 53 88 86 10 39 32 55 39 209 201 188 352 528 742 1574 1961 2189 2058 2505 2689 2525 1898 1598
0 0 0 0 0 0 0 0 0 0 0 0 0 2 56 64 62 42 4 42 85 126 432 487 539 732 1930 2037 2185 2398 2281 2276 2005
0 0 0 0 0 0 0 0 0 0 0 1 0 0 0 16 43 73 67 18 11 33 53 60 122 352 1016 1769 2197 2168 1738 1697 1722
0 0 0 0 0 0 0 0 0 0 12 9 9 0 0 0 0 0 0 2 2 0 6 25 39 54 21 460 1611 1923 2013 1763 1347
0 0 0 0 0 0 0 2 1 0 8 16 13 12 11 8 0 0 0 0 0 0 0 0 0 0 0 549 1754 1896 2089 1848 1123
0 0 1 0 0 0 0 8 8 1 10 7 0 0 0 0 0 0 0 0 0 0 0 0 0 0 0 0 16 628 440 666 852
0 1 6 3 1 0 1 7 8 22 21 15 0 0 0 0 0 0 0 0 0 0 0 0 0 0 0 0 0 0 139 268 221
6 5 14 0 0 0 3 3 0 16 0 0 0 0 0 0 0 0 0 0 0 0 0 0 0 0 0 0 0 0 0 1 0

GFSFLT1_con_mucape_081.txt.gz
CAPE
436 507 364 182 141 256 240 123 211 285 350 1182 1139 976 963 825 887 489 534 505 216 668 657 883 1168 1489 1402 1140 1048 1227 1211 1038 1368
497 526 214 401 234 266 295 174 108 341 599 920 1279 1015 1194 1136 936 874 573 286 289 651 151 791 1232 1231 1377 1362 1231 1206 1484 904 1217
548 438 300 320 236 179 375 205 165 738 1007 1103 1369 1600 1516 1664 1724 1360 1131 1058 922 933 708 755 760 759 1029 1200 1285 1524 1454 1109 983
395 434 273 279 252 163 366 221 167 387 602 831 1264 1494 1568 1615 1653 1513 1303 1385 1411 1093 734 554 465 582 245 709 1156 1322 1303 1009 1190
291 236 344 268 254 89 91 148 143 146 155 446 500 751 1111 1548 1851 1815 1699 1645 1281 1590 851 916 622 152 422 922 917 1331 1375 1246 1114
142 191 257 207 137 104 151 146 63 46 226 159 337 466 559 943 1625 1812 1619 1698 1871 2037 1217 890 1005 762 529 568 794 1111 1406 1311 1660
97 164 236 209 156 66 135 218 146 125 91 85 227 238 273 500 731 957 1202 1815 2142 2113 2107 1571 1217 1369 1156 1245 1281 1373 1624 1399 1212
54 68 181 361 267 129 265 80 89 95 124 28 45 44 58 176 528 521 516 581 1224 2034 2118 2236 2005 1675 1921 1906 1557 1805 1889 1640 1213
57 54 76 117 275 319 378 151 95 61 110 111 97 24 43 81 121 111 177 128 455 1274 1608 1949 2117 2063 1816 1759 1899 1519 1552 1723 1802
36 71 49 90 102 131 148 127 85 95 81 47 101 129 70 32 81 43 37 120 199 593 1269 1547 1833 1974 2141 1836 1793 1868 1747 1393 1458
2 7 19 20 23 44 54 60 32 46 73 73 49 34 53 13 65 100 136 210 240 542 715 968 1627 1479 1573 1859 2067 2066 1782 1597 1380
0 0 0 0 0 0 13 9 13 41 24 25 51 43 63 47 83 125 80 157 270 223 302 640 828 1214 1461 1488 1454 1701 2094 2044 1534
0 0 0 0 0 0 0 0 0 0 1 40 45 47 44 35 99 88 53 96 112 85 98 196 426 698 881 1262 1391 1539 1729 1878 1613
0 0 0 0 0 0 0 0 0 0 0 0 0 6 12 0 15 47 38 42 42 41 85 93 143 292 403 508 1299 1448 1554 1556 1673
0 0 0 0 0 0 0 0 0 0 0 0 0 0 0 0 0 0 13 4 23 27 0 31 60 78 94 164 292 1051 1271 1485 1467
0 0 0 0 0 0 0 0 0 0 0 0 0 0 0 0 0 0 0 0 0 0 1 0 22 7 31 52 43 226 1382 1362 1469
0 0 0 0 0 0 0 0 0 0 0 0 0 0 0 0 0 0 0 0 0 0 0 0 0 0 0 0 0 56 309 231 312
0 0 0 0 0 0 0 0 0 0 0 0 0 0 0 0 0 0 0 0 0 0 0 0 0 0 0 0 0 0 0 0 12
0 0 0 0 0 0 0 0 0 0 0 0 0 0 0 0 0 0 0 0 0 0 0 0 0 0 0 0 0 0 0 0 0
0 0 0 0 0 0 0 0 0 0 0 0 0 0 0 0 0 0 0 0 0 0 0 0 0 0 0 0 0 0 0 0 0

GFSFLT1_con_mucape_087.txt.gz
CAPE
127 141 67 99 81 49 50 59 249 318 203 170 227 463 487 500 636 494 373 538 507 619 721 787 977 988 941 759 596 468 597 989 1117
217 152 263 109 90 53 94 85 153 410 327 206 202 143 201 500 533 569 399 207 328 458 521 670 703 917 988 868 822 738 787 668 792
255 225 198 280 141 163 79 80 221 249 558 352 275 281 208 376 519 492 406 270 432 340 249 534 580 692 897 1055 910 820 583 952 828
271 88 159 370 311 285 252 144 237 251 287 423 469 478 482 463 498 520 540 373 288 425 178 356 481 571 896 962 907 924 872 975 1012
128 160 123 226 274 253 303 304 241 280 285 199 157 238 535 636 718 704 774 573 597 735 927 820 589 515 794 791 764 806 952 1133 1112
173 165 116 153 233 168 215 274 236 288 276 194 86 107 168 322 377 449 540 596 768 751 900 878 729 591 576 557 333 427 702 1002 1162
24 182 196 380 236 239 256 224 205 159 156 146 80 89 82 100 168 185 224 245 393 608 604 817 885 821 593 589 222 55 363 703 954
70 35 104 197 135 231 231 185 240 185 160 93 78 70 63 32 82 68 53 119 135 255 415 472 677 938 893 705 637 447 423 521 724
24 53 20 34 193 175 238 180 144 103 97 34 0 38 40 0 14 58 35 39 51 71 112 124 249 570 973 980 894 812 948 955 878
34 11 24 46 177 162 175 212 190 144 230 67 33 19 42 52 62 47 58 31 32 52 23 40 39 205 553 838 987 1114 1376 1401 1359
3 33 10 108 118 63 164 147 258 166 214 119 73 66 63 42 60 45 76 47 29 45 24 16 8 40 152 292 538 774 950 1051 1180
56 97 22 36 80 96 192 378 238 208 162 274 243 136 143 168 102 71 103 76 80 47 33 23 11 20 62 122 199 385 466 521 768
58 107 117 111 82 67 60 72 65 72 29 5 9 1 41 113 90 115 125 90 8 0 1 43 73 58 51 76 72 109 239 321 512
0 0 0 0 0 0 0 0 0 0 0 0 0 0 1 20 33 98 159 71 72 34 32 30 92 108 76 72 77 79 163 138 155
0 0 0 0 0 0 0 0 0 0 0 0 0 0 0 0 0 4 0 14 123 115 68 54 82 107 106 78 69 48 67 82 89
6 0 0 0 0 0 0 0 0 0 0 0 0 0 0 0 0 0 0 0 0 0 1 6 12 21 51 83 81 84 91 78 70
16 0 0 0 0 0 0 0 0 0 0 0 0 0 0 0 0 0 0 0 0 0 0 0 0 0 0 0 0 46 74 76 71
0 0 0 0 0 0 0 0 0 0 0 0 0 0 0 0 0 0 0 0 0 0 0 0 0 0 0 0 0 0 0 0 0
0 0 0 0 0 0 0 0 0 0 0 0 0 0 0 0 0 0 0 0 0 0 0 0 0 0 0 0 0 0 0 0 0
0 0 0 0 0 0 0 0 0 0 0 0 0 0 0 0 0 0 0 0 0 0 0 0 0 0 0 0 0 0 0 0 0

GFSFLT1_con_mucape_090.txt.gz
CAPE
159 159 101 46 68 39 81 87 186 160 119 68 32 115 149 122 155 338 319 258 428 300 493 748 731 839 808 661 550 316 338 676 821
243 175 117 76 87 63 58 34 71 164 187 141 116 134 338 374 360 376 355 278 219 366 488 565 651 807 756 734 665 572 424 594 799
289 197 164 108 92 78 88 58 59 208 186 175 144 117 305 394 377 401 435 331 204 165 307 358 491 570 618 646 644 680 601 645 551
298 250 225 170 143 90 74 75 166 233 415 379 156 42 160 149 257 381 394 349 285 217 284 130 126 369 582 733 687 701 685 583 656
283 215 185 184 214 260 130 102 215 184 218 186 189 117 232 318 395 470 452 435 329 368 338 423 372 374 401 541 770 768 799 828 951
241 187 133 146 192 362 310 234 220 210 169 150 153 108 103 205 385 498 521 462 411 442 582 606 640 487 379 439 563 519 562 690 663
159 136 99 115 243 213 254 280 315 251 228 256 213 171 81 80 129 184 210 205 185 199 303 550 655 628 561 539 410 283 202 411 632
82 52 86 300 382 296 354 221 181 151 166 173 107 111 82 65 44 35 32 31 65 95 79 120 294 633 764 758 725 654 507 190 530
127 93 55 132 143 126 376 344 325 250 204 153 142 57 14 26 22 54 47 0 38 47 74 91 69 203 402 601 706 804 784 701 703
97 95 64 38 177 234 303 481 431 110 98 105 79 18 46 13 15 23 29 7 36 62 48 52 68 39 50 241 317 456 589 869 1056
49 82 86 56 37 85 158 206 433 346 191 194 109 43 27 18 20 23 52 46 76 44 51 52 31 43 31 54 76 85 194 260 435
9 8 31 36 118 67 97 108 201 212 320 384 245 179 82 47 43 31 67 55 45 29 45 34 29 27 17 34 37 26 57 87 154
7 105 38 81 144 114 136 110 136 141 108 150 195 185 111 100 154 66 28 15 21 14 28 10 9 15 21 13 2 1 18 18 64
92 119 128 94 78 47 47 64 114 113 112 172 85 9 0 4 117 170 67 68 86 114 25 19 14 45 35 45 10 3 16 26 34
46 18 5 0 0 0 0 0 0 0 0 0 0 0 0 0 0 8 47 94 170 129 44 17 21 12 27 42 62 65 40 36 37
5 0 0 0 0 0 0 0 0 0 0 0 0 0 0 0 0 0 0 0 0 0 42 84 109 92 60 56 71 79 81 57 47
48 27 2 0 0 0 0 0 0 0 0 0 0 0 0 0 0 0 0 0 0 0 0 0 0 2 36 14 0 0 0 0 3
30 0 0 0 0 0 0 0 0 0 0 0 0 0 0 0 0 0 0 0 0 0 0 0 0 0 0 0 0 0 0 0 0
0 2 0 0 0 0 0 0 0 0 0 0 0 0 0 0 0 0 0 0 0 0 0 0 0 0 0 0 0 0 0 0 0
0 0 0 0 0 0 0 0 0 0 0 0 0 0 0 0 0 0 0 0 0 0 0 0 0 0 0 0 0 0 0 0 0

GFSFLT1_con_mucape_093.txt.gz
CAPE
529 257 123 218 436 306 100 123 337 301 528 853 700 534 786 1056 1113 922 1095 1193 1239 1174 1747 2423 1864 1852 1871 1734 1720 1639 1728 1511 1839
463 316 222 197 477 469 326 50 306 577 631 774 591 542 659 885 989 1012 1087 1206 1229 1292 1472 1255 1727 1786 1709 1957 1821 1667 1504 1277 1896
223 278 261 203 291 423 419 130 43 279 219 612 832 549 677 1061 1224 1113 1032 857 779 1009 1197 1377 1508 1613 1711 1781 1897 1800 1738 1624 1643
290 256 277 185 194 215 240 116 31 268 434 691 510 165 374 643 1067 1040 1072 1113 1159 1135 1077 920 1200 1377 1354 1703 1738 1748 1780 1700 1795
429 392 322 256 188 194 312 225 202 271 630 751 712 524 234 232 758 805 1146 1338 1153 1267 1120 1041 1035 1026 1272 1293 1258 1709 1877 1755 1273
493 400 346 292 260 195 384 383 349 182 193 275 164 84 67 49 137 1138 1447 1369 1377 1292 1391 1492 1415 1245 1315 1280 1249 1401 1614 1730 1633
354 331 329 278 223 230 435 368 453 500 311 207 146 121 116 94 129 243 366 428 526 812 1276 1562 1549 1525 1396 1125 1066 884 771 954 1319
320 247 234 186 234 251 331 403 274 226 201 181 152 119 110 74 72 189 242 283 229 224 375 652 1120 1509 1411 1288 988 717 721 665 682
174 131 136 195 405 428 624 689 260 315 325 249 181 173 103 78 67 70 34 103 133 123 134 181 257 624 795 828 589 499 603 604 950
244 179 126 118 266 603 322 538 361 177 203 176 147 121 65 103 47 41 33 51 26 31 11 28 64 52 94 139 180 281 341 446 1031
175 169 109 122 130 274 461 479 521 311 119 156 159 69 5 43 35 11 29 54 6 33 60 29 11 1 17 33 14 62 75 131 224
59 30 41 82 105 246 246 213 246 312 238 171 100 65 45 43 13 12 5 5 0 24 51 47 46 24 26 1 15 12 19 31 92
15 16 0 13 61 113 92 151 186 163 174 179 250 162 94 113 93 80 58 62 10 1 3 5 6 0 0 17 10 3 6 18 17
36 33 13 51 47 76 86 112 78 128 112 169 230 208 154 89 67 47 171 44 12 2 14 57 8 4 0 0 3 17 8 11 21
86 71 62 66 69 39 29 15 29 64 53 42 40 50 30 11 0 14 103 160 49 33 66 141 59 32 0 0 0 1 7 19 4
80 54 7 0 0 0 0 0 0 0 0 0 0 0 0 0 0 0 0 1 15 70 106 59 69 125 8 0 0 0 1 37 48
0 0 0 0 0 0 0 0 0 0 0 0 0 0 0 0 0 0 0 0 0 0 0 0 0 0 5 19 3 2 4 3 0
45 22 18 0 0 0 0 0 0 0 0 0 0 0 0 0 0 0 0 0 0 0 0 0 0 0 0 0 0 0 0 0 0
63 43 28 19 0 0 0 0 0 0 0 0 0 0 0 0 0 0 0 0 0 0 0 0 0 0 0 0 0 0 0 0 0
0 0 0 0 0 0 0 0 0 0 0 0 0 0 0 0 0 0 0 0 0 0 0 0 0 0 0 0 0 0 0 0 0

GFSFLT1_con_mucape_096.txt.gz
CAPE
877 824 432 376 637 421 676 1044 963 666 1276 1643 1580 1426 1582 1607 1609 682 1141 1062 913 2129 1632 1141 1621 1330 1391 1729 1784 1975 2155 1748 1465
771 1059 741 488 710 900 1027 793 778 507 501 945 1487 1338 1439 1492 1664 1492 888 1009 1060 2793 1919 1541 1363 1081 1101 1160 1442 1837 2007 1346 1951
822 1024 1069 731 739 893 632 336 296 279 797 953 1117 1063 1207 1213 750 736 686 1092 1261 1378 1420 1930 1406 1329 1184 1192 1307 1785 2262 1405 1657
762 1048 1007 785 899 1079 1012 438 175 176 266 377 1085 1069 1198 1078 926 705 734 729 901 944 1372 1775 1961 1542 1137 1312 1134 1231 1755 1648 1556
312 388 412 435 802 869 820 847 321 129 173 200 411 1188 1079 738 906 826 729 781 845 1190 1085 1793 1617 1561 1630 1614 1328 1545 1565 1497 1297
419 371 323 321 372 570 810 501 234 211 358 665 796 454 591 507 463 620 818 987 938 1176 1422 1289 985 1125 1235 1396 1567 1399 1666 1990 1750
600 558 497 438 332 347 473 655 809 712 551 477 405 158 80 123 140 246 538 766 1111 1213 1455 1602 1109 1176 1223 1313 1815 1724 1700 1774 1853
627 551 484 430 371 320 314 375 1034 1005 758 653 735 312 119 167 204 253 370 769 875 991 1129 1246 1485 1724 1889 1908 1821 1442 1840 1592 1501
455 384 347 304 282 306 292 349 454 437 711 521 750 325 246 141 288 173 153 264 439 521 578 650 1050 1254 1542 1527 1194 660 431 570 1659
320 226 167 145 170 279 467 306 382 546 447 251 228 196 118 76 56 81 83 33 46 102 220 268 256 428 796 404 290 147 202 286 1174
325 252 177 135 174 253 481 561 525 327 268 502 337 192 96 111 143 64 21 5 17 39 51 147 154 190 178 34 33 29 70 98 435
165 132 113 139 143 277 311 433 452 406 352 489 411 226 132 20 21 9 54 32 48 47 52 42 69 99 79 26 9 15 24 24 345
64 33 13 4 96 172 166 196 276 302 335 247 194 346 246 63 33 34 5 2 5 7 21 40 36 20 28 9 0 1 6 27 26
27 12 0 0 14 30 170 210 202 152 85 243 108 196 125 99 84 89 74 78 94 38 0 0 0 10 8 4 0 0 15 27 12
22 31 10 12 14 30 47 21 76 142 168 89 120 211 221 181 145 79 39 23 146 104 23 0 0 5 4 0 0 0 0 2 3
48 52 63 64 78 36 41 20 8 15 6 9 10 26 41 44 7 19 3 3 43 230 135 59 0 0 1 32 0 0 0 0 2
66 77 105 88 6 0 0 0 0 0 0 0 0 0 0 0 0 0 0 0 0 0 3 15 11 3 0 0 0 0 0 0 0
40 4 0 0 0 0 0 0 0 0 0 0 0 0 0 0 0 0 0 0 0 0 0 0 0 0 0 0 0 0 0 0 0
34 44 7 0 2 4 1 0 0 0 0 0 0 0 0 0 0 0 0 0 0 0 0 0 0 0 0 0 0 0 0 0 0
44 39 81 92 83 48 0 0 0 0 0 0 0 0 0 0 0 0 0 0 0 0 0 0 0 0 0 0 0 0 0 0 0

GFSFLT1_con_mucape_099.txt.gz
CAPE
771 540 164 251 572 449 862 1122 916 1272 1843 2158 1762 1552 1520 1375 1229 950 801 1222 2211 936 884 852 2699 1745 1679 1631 2025 1960 1821 1586 1555
724 747 372 422 516 879 1309 1109 1349 1439 1949 2232 1793 1473 1566 1645 1527 1424 1481 1387 1473 1377 1790 1855 1402 1208 1248 1443 1571 1776 1840 1453 1507
979 872 941 578 1064 1036 720 460 1545 904 812 1402 1684 1575 1438 1579 1477 1275 1012 1073 1234 1390 976 1395 1608 928 1096 1165 1223 1455 1833 2307 1952
994 1071 1217 1545 1300 1235 1446 1203 1054 824 1346 1387 1534 1582 1540 1907 1391 1623 1426 965 836 1057 1145 1466 1219 1452 1348 1344 1455 1529 2215 2473 1836
1511 1681 1604 1380 1208 1501 1153 1047 383 418 207 308 286 960 1253 1418 961 1163 1397 914 907 916 1273 1352 1373 1507 1602 1719 1499 2032 2196 1743 1478
970 916 1112 1221 1243 1427 1614 1044 608 548 325 211 188 222 1176 898 1072 1158 1414 1544 1059 1013 1029 1427 1246 1506 1633 1504 2007 1958 1930 2099 1966
398 469 513 503 716 1077 1177 1228 1117 785 530 374 560 694 233 296 265 341 589 682 790 1098 1691 1345 1365 1383 1610 1491 1515 1790 1808 1828 1854
443 437 358 321 296 499 793 1078 1149 936 663 650 823 655 672 573 209 244 335 365 843 988 1758 1285 1322 1352 1456 1548 1461 838 1033 1863 1760
748 598 489 406 348 323 273 257 1217 1549 1348 825 976 1013 895 670 664 841 776 713 672 761 903 1076 1278 1375 1615 1477 695 609 505 685 2083
643 513 410 363 310 358 298 350 371 574 693 1105 1022 771 564 573 436 364 424 392 308 249 294 835 771 936 575 468 452 282 290 295 253
697 357 283 209 169 207 214 305 478 449 396 392 290 272 243 205 133 119 146 113 18 39 58 350 513 531 166 46 1 23 52 85 96
585 325 247 155 149 206 280 377 450 588 512 474 420 390 233 187 185 172 119 7 94 79 333 293 316 313 119 50 22 0 4 37 426
451 262 95 76 130 338 253 315 462 567 447 324 352 293 247 166 123 99 18 20 29 10 5 82 112 61 30 54 40 20 23 21 20
221 173 39 0 73 84 215 314 283 339 404 424 388 83 332 380 243 58 22 11 10 13 46 50 17 23 1 21 21 26 2 9 20
178 68 0 0 25 145 281 223 185 209 123 85 279 274 196 158 118 139 106 49 32 35 159 65 0 0 0 4 16 26 13 0 0
91 35 27 15 22 11 26 73 17 187 266 67 71 59 177 125 112 160 221 111 57 16 9 135 29 18 0 0 0 0 0 11 1
114 62 68 46 65 59 40 193 205 67 34 54 29 0 8 11 4 30 1 3 0 6 0 0 134 119 78 11 1 5 0 0 0
206 98 60 63 123 196 83 25 38 0 0 0 0 0 0 0 0 0 0 0 0 0 0 0 0 0 0 0 0 0 0 0 0
279 192 48 8 7 9 0 0 0 0 0 0 0 0 0 0 0 0 0 0 0 0 0 0 0 0 0 0 0 0 0 0 0
244 259 152 101 54 5 2 0 0 0 0 0 0 0 0 0 0 0 0 0 0 0 0 0 0 0 0 0 0 0 0 0 0

GFSFLT1_con_mucape_102.txt.gz
CAPE
139 140 221 219 202 71 702 1189 1497 1431 2165 2553 2381 2018 2433 2631 3015 1877 1867 2532 1527 322 410 147 1117 2037 2149 2592 2586 2752 2764 2726 2589
42 30 73 195 157 272 219 367 968 1180 2069 2018 2402 2043 2557 2432 2059 2214 1924 1906 2727 2048 581 147 355 678 1638 2277 1832 2097 2149 2656 2538
0 58 122 91 97 104 59 1 195 1212 2327 2014 2067 1515 2071 2095 2137 2528 2145 2366 1699 1395 639 189 7 301 958 2149 1843 2402 2727 2286 2077
314 742 436 166 111 538 36 0 1032 1444 1667 1754 2024 1489 1061 1951 1603 1861 2013 2154 2105 1760 691 294 467 819 1877 1761 2613 2534 2724 2699 2184
1584 936 565 186 100 16 835 911 1521 1051 743 847 1117 1015 1341 1430 828 1094 1555 740 436 1471 1720 2078 2267 2652 1972 2208 1810 1920 2331 2318 2038
1523 2145 1424 908 1029 1447 1831 1572 1215 1109 656 577 456 750 672 687 1440 1186 1511 1499 378 337 1418 2221 2184 2203 1828 1447 1977 1533 1938 2298 2109
1129 1338 1373 1611 1550 1661 1435 1669 1283 837 700 408 340 224 318 522 565 624 467 584 820 1154 1222 1093 1142 1862 1652 1579 2240 1672 1627 2035 1925
840 850 865 970 917 993 1460 1645 1496 1406 1081 797 349 389 447 419 419 67 121 286 244 635 416 722 1035 1312 1581 738 650 737 591 514 1081
519 497 472 481 547 552 795 974 1386 1201 1062 948 931 925 677 717 790 664 560 315 275 172 170 445 600 472 898 817 552 287 326 269 906
730 529 421 381 360 350 361 563 960 1474 1475 1365 1355 1392 1235 985 707 1026 626 512 429 371 202 161 203 520 413 257 188 142 143 175 317
616 528 379 340 352 278 308 307 300 590 1075 804 697 655 687 492 577 359 239 212 119 71 154 110 171 250 193 112 65 55 52 52 62
527 465 313 222 175 210 285 294 341 431 551 662 481 468 366 286 207 124 34 49 198 131 127 22 204 238 96 99 52 38 8 3 116
451 279 429 198 153 221 244 343 371 341 442 537 563 543 395 461 257 135 151 147 29 11 135 368 5 76 74 55 36 41 37 22 14
350 301 104 54 220 343 326 263 474 549 458 381 224 471 501 473 340 288 150 106 56 9 0 170 39 2 27 11 3 26 47 19 3
184 83 21 0 58 93 155 461 301 255 231 291 274 342 521 322 219 472 363 269 36 41 26 29 18 30 3 0 0 0 9 8 4
115 23 8 0 3 143 138 152 179 128 117 183 99 49 371 225 271 108 163 99 113 56 29 49 130 114 43 5 0 8 21 19 18
211 94 0 1 0 0 0 29 79 40 68 232 221 130 107 99 26 55 51 174 60 96 115 65 6 1 16 101 78 10 0 0 0
320 196 95 28 20 29 45 39 6 73 102 47 50 43 40 11 0 0 0 0 0 0 0 0 0 0 0 0 1 0 0 0 0
276 259 179 195 151 48 46 58 53 23 0 0 0 0 0 0 0 0 0 0 0 0 0 0 0 0 0 0 0 0 0 0 0
293 393 369 372 306 231 56 11 0 0 0 0 0 0 0 0 0 0 0 0 0 0 0 0 0 0 0 0 0 0 0 0 0

GFSFLT1_con_mucape_105.txt.gz
CAPE
53 48 73 76 25 64 167 243 536 690 1189 1269 959 1361 1067 948 922 868 887 896 557 302 314 327 432 685 970 1065 1148 1137 1286 988 1302
36 42 73 91 130 84 343 521 914 1339 1285 1260 1383 955 1176 681 1065 893 874 992 778 639 465 297 266 439 688 846 1013 1279 1351 1041 877
44 44 62 86 177 149 263 340 884 1249 1567 1505 1391 1130 1358 1177 981 1149 1082 939 509 563 390 177 465 316 505 542 957 996 1038 1303 1034
1 0 10 56 129 107 95 131 438 389 994 1169 1443 1368 1065 970 959 941 980 872 812 590 426 184 0 13 527 875 1068 1194 1020 981 945
26 9 36 106 101 78 151 42 106 42 78 831 1039 1111 767 577 734 719 766 546 515 491 488 438 547 710 1259 965 1031 1014 1239 1304 1293
153 49 66 99 144 64 62 34 30 310 372 906 765 852 670 355 339 128 643 383 237 207 647 863 1104 893 1057 962 841 841 980 1059 909
1102 468 173 167 129 108 45 116 580 598 675 693 566 549 274 199 306 325 478 511 353 334 338 322 565 749 990 702 619 775 797 842 754
718 555 583 341 249 351 123 300 639 604 527 359 226 175 159 151 119 35 35 39 34 62 72 123 359 639 673 603 363 232 397 384 391
321 844 803 681 554 495 404 828 503 633 700 556 407 367 335 396 246 106 111 151 58 27 23 3 161 120 236 230 231 175 127 136 293
440 405 394 715 387 674 907 942 987 1020 726 658 598 595 622 518 414 301 449 374 254 121 6 36 49 23 7 29 41 83 107 89 163
612 429 356 288 311 356 613 847 1045 1121 1005 823 848 968 771 525 404 562 206 100 41 10 43 33 42 21 1 4 4 58 58 46 81
417 369 295 300 337 386 348 355 489 944 1285 1111 900 844 779 453 346 242 160 111 86 33 26 36 61 66 68 49 32 42 57 52 202
335 280 212 170 167 288 386 362 444 606 671 624 592 647 596 494 363 245 145 87 32 13 4 25 54 24 8 4 0 0 0 0 13
423 280 82 117 216 238 256 348 636 371 526 492 420 631 539 459 343 255 145 120 65 32 18 0 0 4 0 0 0 0 5 1 18
246 99 20 148 188 241 239 216 252 377 390 382 386 193 429 393 448 384 270 202 203 47 9 1 0 0 0 7 8 0 0 1 23
103 8 0 45 59 68 83 122 86 128 86 85 70 131 247 347 253 112 65 101 67 84 92 87 57 22 5 30 3 2 0 0 1
174 35 0 0 0 30 70 62 0 38 16 39 13 48 42 38 20 47 69 68 21 24 47 117 15 14 8 13 52 45 5 3 6
103 36 15 0 0 0 0 0 2 19 32 34 24 19 33 21 15 19 14 7 12 0 1 2 6 3 0 0 1 0 0 4 4
50 26 7 4 0 0 0 0 0 0 0 0 0 5 1 0 0 0 0 0 0 0 0 0 0 0 0 0 0 0 0 0 0
83 51 34 30 7 0 0 0 0 0 0 0 0 0 0 0 0 0 0 0 0 0 0 0 0 0 0 0 0 0 0 0 0

GFSFLT1_con_mucape_111.txt.gz
CAPE
67 97 41 73 104 97 83 130 189 214 164 166 261 270 263 395 315 258 276 339 323 232 400 335 444 576 1034 703 491 428 819 894 813
28 22 56 96 117 121 94 74 180 202 169 108 247 245 344 386 326 405 405 346 98 222 455 432 287 384 701 780 754 773 845 920 610
7 16 94 57 106 149 137 141 146 196 189 141 168 424 441 242 273 461 429 481 524 435 277 213 128 255 411 500 561 597 839 919 772
8 57 62 86 33 165 180 242 256 321 268 223 309 573 513 319 427 418 460 624 594 423 391 240 59 160 376 296 381 453 715 684 720
11 34 82 104 160 257 241 257 316 451 494 544 563 563 651 628 620 618 665 681 531 230 218 183 3 34 235 7 438 770 703 698 670
64 45 67 119 179 236 243 259 326 511 567 538 641 654 529 390 417 415 325 518 604 518 449 246 287 327 287 654 694 692 696 661 657
63 73 64 61 150 214 276 288 287 289 97 86 281 436 402 327 218 210 148 156 262 366 325 377 443 461 594 726 545 442 368 373 520
34 39 83 104 142 156 153 93 73 44 76 131 168 324 184 177 257 273 193 152 208 166 194 105 155 401 451 503 495 435 234 87 174
80 46 43 65 106 104 108 114 140 78 146 210 227 160 213 197 185 228 159 153 136 100 67 30 96 116 201 180 234 321 175 89 52
397 190 171 160 164 132 135 126 228 369 270 210 228 205 130 144 143 196 183 148 129 96 63 60 78 98 79 60 38 5 0 0 34
442 341 361 201 188 221 214 225 143 104 98 163 176 281 187 202 143 178 304 333 284 206 162 118 77 57 56 26 19 21 26 3 2
320 383 450 528 254 244 258 194 94 85 117 48 111 257 308 261 294 373 379 298 235 189 171 137 79 54 30 12 11 31 45 127 145
35 9 38 95 153 352 357 280 188 131 175 45 61 37 144 393 462 433 298 289 228 161 189 158 109 65 38 29 19 1 2 0 47
23 0 0 46 318 156 332 395 447 461 481 416 300 295 339 401 524 429 496 341 148 97 120 156 168 108 58 27 11 4 0 0 0
1 6 23 167 296 258 447 467 457 456 346 323 332 343 404 411 473 404 412 254 250 162 184 127 143 127 34 2 0 0 1 4 1
0 44 83 48 113 156 347 382 276 249 203 322 392 347 399 312 385 471 425 386 336 241 145 139 60 39 20 1 1 8 3 9 19
0 0 6 18 23 3 65 93 59 67 161 169 194 158 234 268 274 350 456 346 291 142 117 130 94 70 78 96 62 8 44 31 46
0 0 0 0 0 0 1 1 3 19 25 17 25 27 47 84 152 187 147 112 51 148 195 31 13 23 2 0 29 28 20 17 2
0 0 0 0 0 0 0 0 0 0 0 0 0 0 0 0 2 15 18 26 10 0 0 0 0 0 0 0 0 0 0 0 0
25 2 0 0 0 0 0 0 0 0 0 0 0 0 0 0 0 0 0 0 0 0 0 0 0 0 0 0 0 0 0 0 0

GFSFLT1_con_mucape_114.txt.gz
CAPE
18 17 24 16 30 79 68 99 141 122 49 110 248 247 195 173 196 204 194 177 223 265 262 302 265 537 828 849 602 285 49 687 563
36 32 13 8 36 76 79 116 139 165 133 78 176 252 217 183 258 251 161 168 310 204 158 328 267 267 544 783 564 548 604 738 393
29 28 21 30 58 47 71 111 151 153 155 110 114 190 165 173 292 257 282 329 315 181 234 284 336 282 272 579 575 480 572 687 734
41 11 35 33 34 35 59 92 122 171 178 144 124 165 169 219 337 205 398 335 413 413 325 232 170 144 139 309 296 370 432 578 651
33 32 16 35 45 70 64 132 118 139 177 182 165 210 213 344 278 297 402 433 456 300 225 195 168 101 168 302 172 476 534 493 675
47 31 25 39 66 72 117 166 229 233 213 219 276 241 354 464 339 533 503 563 399 289 229 233 200 102 12 96 495 573 596 542 479
112 58 50 99 136 144 122 159 255 272 243 299 343 363 367 376 490 444 305 81 75 97 151 190 198 250 338 408 575 547 538 426 294
186 99 96 120 168 163 103 159 241 283 329 319 333 372 406 353 195 200 172 146 70 98 115 121 109 196 247 355 453 344 304 238 116
199 154 119 117 89 155 179 236 234 212 121 74 145 286 320 193 148 109 155 186 146 96 116 117 72 85 103 137 137 168 205 186 72
131 200 158 167 156 178 139 161 168 114 93 124 113 100 126 135 157 125 126 131 131 110 87 73 78 38 13 66 85 70 13 4 7
250 206 143 153 158 181 164 172 255 207 131 90 88 98 108 108 125 95 99 138 126 98 81 54 66 56 66 59 40 27 22 13 3
336 388 374 236 153 230 252 201 177 137 153 117 102 88 123 132 117 102 118 125 96 151 146 143 131 80 52 44 36 32 31 23 19
82 63 113 219 289 220 263 235 135 57 108 146 71 138 181 211 172 140 101 108 133 148 147 130 110 85 55 41 26 0 0 0 1
50 40 132 215 223 335 226 281 332 144 134 81 68 40 10 24 145 190 158 146 127 85 153 160 141 100 145 73 54 23 3 0 0
37 96 145 141 218 213 148 220 380 351 220 172 251 211 93 33 18 18 163 219 264 168 86 143 113 87 120 34 36 16 0 0 0
80 55 38 60 76 136 142 167 165 304 332 368 216 118 95 61 18 153 258 318 244 164 185 209 163 124 89 53 18 6 0 0 0
31 20 23 17 6 19 143 59 75 98 165 306 246 233 206 151 171 215 286 291 222 303 197 186 143 82 86 61 21 10 31 14 14
0 0 0 0 0 10 1 4 8 7 10 5 0 0 11 155 108 137 269 209 182 154 140 106 136 70 73 140 36 2 1 7 16
0 0 0 0 0 0 0 0 0 0 0 0 0 0 0 0 0 7 12 18 7 2 1 19 67 0 0 0 1 4 1 0 0
0 0 0 0 0 0 0 0 0 0 0 0 0 0 0 0 0 0 0 0 0 0 0 0 0 0 0 0 0 0 0 0 0

GFSFLT1_con_mucape_117.txt.gz
CAPE
116 16 0 17 172 207 236 205 283 248 267 525 833 874 1015 1096 1167 910 975 1327 1499 1222 1161 1208 1417 1567 1955 2111 1592 1310 889 1096 1692
82 9 0 18 134 98 310 262 330 302 314 464 804 812 1025 1075 1112 1059 991 1195 1125 1074 1233 1109 1241 1128 1383 1793 1720 1369 1456 1064 1693
81 56 10 35 117 124 216 302 413 431 441 507 605 813 960 959 1000 1260 1215 1214 1318 1281 1014 1056 1273 1041 1112 1529 1724 1786 1753 1979 1891
66 75 17 35 47 58 150 315 386 572 673 701 622 773 905 968 928 978 1240 1283 1446 1496 1173 1067 938 1007 1025 1185 1255 1259 1515 1761 1751
86 82 16 39 48 44 124 252 370 507 686 717 741 752 1038 1037 1054 1110 1162 1354 1327 1137 1183 967 990 877 765 752 974 880 1258 1420 1255
201 146 99 110 66 49 123 277 362 518 655 775 798 816 1000 1066 1010 1140 1270 1337 1237 1036 1049 891 647 416 336 861 727 705 1285 1803 1755
211 172 202 327 180 40 79 493 548 512 663 427 876 886 989 1093 1202 1285 1341 1313 788 591 664 751 875 865 869 701 860 1525 1677 1310 1320
270 242 253 320 457 366 158 157 538 845 430 411 853 965 1074 1254 1566 1197 1236 761 731 410 420 453 495 546 701 992 925 677 525 698 788
344 363 330 350 351 247 143 133 244 276 601 374 512 1057 1217 1294 974 595 781 595 615 483 306 191 459 275 48 52 49 73 114 114 125
473 378 386 394 299 130 96 51 76 105 193 274 365 613 659 517 244 430 208 189 305 360 141 73 187 80 53 54 47 42 65 40 17
338 244 228 240 273 172 117 165 166 115 95 140 124 64 94 134 164 67 93 112 134 133 100 76 79 46 43 21 15 41 39 52 57
317 283 226 202 177 191 175 164 442 308 297 228 222 107 178 96 81 77 89 52 46 102 126 70 60 55 58 72 72 66 55 58 69
271 357 266 262 247 199 173 160 158 242 210 238 194 128 101 97 107 124 127 98 84 87 71 78 93 102 118 109 82 70 59 41 30
85 111 146 282 347 309 264 210 175 206 160 141 175 139 128 70 58 100 105 99 83 106 98 78 99 83 99 117 110 86 73 45 13
166 148 132 177 234 232 264 291 298 313 225 182 207 137 89 39 24 29 30 75 77 56 82 89 120 123 124 167 197 120 105 39 21
103 64 129 179 169 222 351 264 346 344 293 272 215 142 81 86 87 12 50 17 66 93 101 162 144 121 139 116 86 120 71 57 22
62 39 14 29 25 44 11 137 126 211 290 303 264 202 134 58 52 41 0 42 83 112 150 172 212 217 163 117 76 41 22 20 5
2 0 0 4 4 6 15 13 15 14 26 13 33 104 92 57 62 46 53 80 131 154 179 191 164 136 126 98 64 90 67 39 47
0 0 0 0 0 0 0 0 0 1 1 0 0 0 1 0 38 96 104 79 110 123 140 96 85 39 4 100 34 1 6 13 6
0 0 0 0 0 0 0 0 0 0 0 0 0 0 0 0 0 0 0 0 0 1 0 0 0 0 0 0 0 0 0 0 0

GFSFLT1_con_mucape_120.txt.gz
CAPE
297 259 301 184 262 408 536 661 668 699 814 1107 1210 1293 1048 1416 1295 1515 949 879 1102 797 937 934 1021 1349 1477 1547 1872 1809 1913 1436 1593
17 51 182 311 239 482 626 732 745 789 827 959 937 977 1250 1489 1935 1672 1091 1252 1649 1279 2433 2043 1700 1685 1524 1323 1456 1460 1616 1269 1388
22 33 149 347 278 528 710 753 787 865 844 835 834 819 1071 1227 1310 1596 1544 1560 1883 1316 1399 1698 1592 1789 1736 1707 1766 1861 2157 1417 1647
89 200 146 304 342 589 702 755 756 987 906 788 838 868 1019 1088 1099 1172 1436 1378 1653 1855 2179 1889 1869 2035 1917 1824 1804 1859 2179 1977 1486
132 239 186 103 409 662 715 753 761 1077 1055 963 998 917 1154 1331 1325 1329 1117 1435 1449 1817 2054 1982 2032 1951 1811 1568 1687 1731 1910 1908 1280
241 274 292 179 269 677 580 372 880 947 1147 1219 1190 1280 1303 1410 1380 1433 1196 1452 1493 1760 1781 1786 1463 1490 1557 1508 1492 1527 1582 1699 1475
483 400 393 214 104 228 361 254 360 1018 1170 1225 1372 1347 1451 1513 1445 1311 1279 1551 1690 1702 1707 1689 1595 1615 1547 1388 1175 1297 1537 1434 1395
597 602 550 453 151 65 143 193 566 899 1186 1344 1383 1343 1396 1549 1637 1616 1690 1582 1716 1619 1444 1238 1169 1171 1150 1402 1433 1074 1430 1486 1373
585 594 483 697 513 250 125 153 354 607 1111 1492 1260 924 869 1407 1850 1919 1847 1428 1690 1449 1036 943 936 906 977 996 551 109 19 42 360
786 719 731 506 677 602 560 159 177 299 867 1137 1099 579 645 1313 1655 1392 1815 1598 1449 1010 755 1037 838 798 702 186 40 35 1 25 49
553 599 736 780 739 762 154 109 253 245 263 643 925 784 421 886 518 799 1114 271 252 215 288 287 389 351 232 118 46 45 38 23 27
307 224 167 207 230 201 284 161 111 98 94 86 93 190 237 289 243 380 173 93 99 142 165 191 55 46 27 29 43 33 7 9 83
258 447 233 134 175 183 123 259 406 313 176 191 290 205 299 363 384 284 120 74 47 61 32 83 58 47 50 66 65 76 66 60 175
139 199 247 290 258 194 176 158 277 496 547 406 299 199 150 107 80 48 99 92 56 43 50 55 65 66 74 51 56 86 95 120 87
360 188 192 216 206 258 304 227 205 276 343 290 158 218 136 103 43 42 39 25 47 50 56 47 2 31 48 48 81 96 139 137 125
187 144 162 239 192 296 359 315 269 269 291 302 265 284 192 83 84 83 22 32 18 22 51 25 26 114 104 82 95 120 129 137 131
208 183 78 67 76 109 196 204 293 405 332 348 311 271 152 161 186 119 22 4 48 46 22 51 80 106 101 117 162 123 116 120 134
177 78 85 53 35 11 8 32 40 100 276 315 338 306 278 186 122 104 81 0 0 38 66 77 100 51 109 115 126 159 92 121 115
0 0 0 0 0 0 1 1 1 1 0 0 1 12 10 41 165 113 122 63 97 44 62 62 109 117 99 111 65 29 93 72 29
0 0 0 0 0 0 0 0 0 0 0 0 0 0 0 0 0 1 3 2 0 0 0 0 25 1 0 0 0 0 0 0 0

GFSFLT1_con_mucape_123.txt.gz
CAPE
414 356 166 116 247 343 1116 923 771 871 1057 1519 1348 1530 1555 2123 1443 1275 1116 1631 1072 935 982 870 1953 1956 1733 1808 2003 1957 2054 1736 1568
98 213 277 232 219 244 867 871 867 1081 1171 1308 1176 1320 1537 1795 1619 1345 979 2341 1596 1425 1482 1115 1607 1605 1857 1817 1702 1727 2017 1687 1600
341 302 567 416 221 258 452 673 1054 973 1143 1270 1139 973 1121 1246 1278 1488 1425 2530 1908 1334 2473 1947 1741 1946 1724 1876 1782 1861 2575 2112 2552
179 107 137 316 146 334 562 812 926 1182 1196 1274 1164 1008 1739 1715 1427 1389 1490 1533 1872 2009 2138 1916 1921 2130 2184 2051 1893 1898 2584 2240 2615
309 249 231 417 446 368 644 1038 1013 1160 1395 1188 1120 1410 2235 1911 1593 1416 1238 1451 1228 2154 2407 2445 2655 2215 2212 2068 2045 2315 2259 2107 1718
413 413 358 328 463 703 873 1295 1373 1097 1319 1503 1092 1604 1087 1500 1340 1508 1469 1402 1413 1656 2125 1895 1598 1908 2153 2085 1708 1759 1906 2025 1890
527 636 498 287 269 323 1378 1338 1970 1862 1559 1444 1467 1267 1179 1798 1209 1230 1323 1637 2179 1561 1508 1872 1604 1654 1624 1606 1313 1314 1564 1675 1749
818 517 451 297 240 119 466 971 1294 1306 2019 2119 1740 1651 1540 1993 2549 1958 1993 1680 2230 2234 1771 1512 1296 1172 1294 1489 1310 894 1339 1386 1524
849 812 722 677 613 357 182 573 888 920 877 1954 2074 1907 1865 2537 3025 1952 1664 1858 1842 1919 1668 1484 1374 1680 1071 1331 987 252 437 311 534
794 859 745 654 1080 259 277 203 647 1018 1041 1122 1620 1705 1633 1524 1574 1784 1845 1620 2395 2157 2027 1845 1371 1132 745 651 416 210 53 1 5
561 550 784 374 587 866 372 193 245 379 346 488 894 1434 1364 1496 1508 1556 1634 1413 1475 1724 1628 1059 967 348 179 225 159 69 36 49 36
165 113 104 98 401 543 333 179 163 89 94 146 284 723 840 958 480 564 520 747 644 496 673 602 149 89 61 85 46 26 25 21 117
83 89 66 69 141 291 301 332 248 106 73 58 10 73 185 308 527 552 513 552 688 514 332 110 44 58 17 32 6 37 30 42 11
117 122 89 167 201 163 287 310 321 336 234 166 134 165 153 100 86 50 60 87 72 62 43 3 21 15 19 47 8 28 29 57 70
143 104 115 183 207 178 165 198 330 287 174 197 163 134 135 129 70 46 19 54 31 25 13 15 34 26 41 23 10 49 68 65 74
127 130 151 199 215 257 296 194 397 226 304 313 319 191 130 107 44 69 82 70 66 64 12 12 6 15 22 36 69 85 79 94 87
151 127 103 139 142 200 221 313 206 235 321 292 318 245 161 140 142 99 113 38 22 0 8 8 41 3 8 42 85 93 92 101 92
91 84 62 36 32 49 91 199 312 298 363 309 279 296 182 149 158 119 148 118 1 13 7 21 67 37 29 60 89 95 93 86 72
66 55 45 41 32 21 13 15 6 5 6 6 10 22 44 56 78 75 77 109 84 39 14 22 29 59 49 67 53 55 45 24 0
0 0 0 0 0 0 0 0 0 0 0 0 0 0 0 0 0 0 0 0 0 0 0 0 0 0 0 0 0 0 0 0 0

GFSFLT1_con_mucape_126.txt.gz
CAPE
371 468 279 198 98 40 365 839 740 1133 1849 1954 1651 2002 2405 2721 2608 2401 2049 2520 2229 2237 2577 646 887 2616 3321 3005 3063 3313 3364 3135 2795
498 557 542 145 255 231 353 1083 1132 1150 1795 1973 2080 1613 2019 2326 2485 2250 1955 2216 2841 2416 3172 2142 2165 2572 2973 2967 3105 3054 3022 2784 2690
410 761 789 266 490 116 610 975 770 1314 1755 1783 1790 1576 1551 1470 1423 2240 2209 2267 2939 2788 2736 3002 2824 2660 2536 2737 2858 3084 3036 2613 2301
325 345 667 858 482 155 259 488 1258 1449 1547 1732 1649 1499 1860 1630 1572 1937 2174 1825 2489 2419 2156 2689 2471 2643 2984 2721 2763 2592 2547 2910 2538
377 246 173 456 241 161 133 326 906 1464 1459 1723 1535 1544 2175 1870 2130 2118 1628 2164 2427 2201 2071 2793 3045 3184 3167 2829 2408 2597 2564 2190 1957
78 240 38 392 302 160 166 86 616 1338 1654 1725 1559 1740 1639 1899 2200 2046 2104 1497 2129 2506 1882 2351 2205 2670 2046 1663 1784 1479 2342 2167 2220
306 500 309 833 599 488 151 88 271 1218 1660 1826 1592 1574 1544 1948 1847 1900 1924 2527 1996 2044 2376 1911 2043 2504 2049 1633 1786 1958 1853 1813 2093
772 546 483 592 470 416 216 636 462 938 1568 1919 1719 1484 1608 1658 2073 2050 1954 2071 2409 2393 1908 2238 2778 2356 2432 2130 1510 848 538 2094 1744
1124 601 536 410 152 117 114 73 201 523 735 1027 1353 1809 1655 2134 2383 2502 2340 2440 2527 2427 2320 2570 1996 2072 1769 1715 604 326 227 564 420
793 509 355 261 501 175 132 50 258 91 109 803 731 1364 1952 2121 2239 2001 2236 2059 2075 2028 2153 2103 1623 1440 1206 529 282 218 186 129 87
557 297 30 42 241 275 311 333 238 566 1005 1267 1215 218 439 1240 1896 1518 1773 1977 2076 2086 1922 1630 1530 791 473 171 154 157 117 18 5
299 192 11 8 49 203 274 173 103 76 460 759 1144 740 647 615 654 695 922 1022 1066 1414 1245 749 667 492 141 95 46 60 63 11 12
56 146 52 0 22 105 249 252 126 94 24 47 143 289 376 225 187 177 517 625 692 538 285 257 160 116 69 42 30 17 17 1 9
67 56 54 9 47 52 195 178 185 66 61 31 25 160 124 38 11 9 19 56 84 102 102 112 75 42 36 55 26 3 16 18 46
60 63 80 92 211 98 75 223 151 161 53 112 43 61 46 55 10 30 0 13 44 10 0 3 1 7 15 23 33 13 25 46 52
69 62 127 143 174 88 123 94 201 232 138 83 138 107 64 49 13 50 82 85 94 97 67 11 0 1 1 1 16 12 15 41 56
107 125 76 89 98 134 273 182 125 320 218 184 145 107 90 74 100 94 104 87 41 41 26 5 4 0 0 4 1 27 48 65 72
84 43 9 57 73 176 236 312 250 235 227 184 195 176 93 136 193 117 115 117 98 71 48 20 15 5 0 1 50 15 13 22 36
166 72 33 42 67 63 73 106 285 271 182 234 238 279 222 69 48 73 136 116 89 12 1 3 3 12 38 44 44 43 38 26 14
0 2 1 13 5 0 4 6 3 0 0 0 0 0 0 0 0 0 0 0 1 0 0 0 0 0 0 0 0 0 0 0 0

GFSFLT1_con_mucape_129.txt.gz
CAPE
318 282 375 224 87 29 95 168 434 566 1055 847 645 562 827 860 862 1293 595 639 721 894 936 1276 710 1398 1535 1411 1866 1649 1747 2050 1345
273 473 330 120 69 78 78 52 401 563 956 643 653 646 922 1068 815 907 867 806 850 1421 1235 798 543 1566 1534 1535 1668 1498 1550 1843 1498
354 413 268 131 87 111 167 181 195 610 951 659 552 524 937 1170 1033 752 823 909 1342 1172 1328 1355 1076 1384 1555 1499 1477 1738 1571 1608 1474
571 479 471 404 264 125 122 337 424 709 995 889 663 637 736 806 754 612 948 798 981 915 1078 888 1342 1202 1337 1342 1481 1547 1354 1298 1533
258 343 260 448 392 177 202 298 597 1046 1002 983 1120 818 591 482 431 289 835 897 777 709 821 1257 1174 1388 1599 1547 1480 1512 1354 1441 1432
515 353 107 245 282 195 146 195 490 624 992 886 911 753 837 667 572 846 763 1026 756 763 740 1085 1355 1485 1365 1390 1264 1208 1098 1148 1142
122 274 71 288 194 200 232 151 225 260 723 849 801 679 896 999 970 816 1069 987 1238 1408 1120 768 1156 1270 1407 902 777 989 1039 987 1018
705 343 435 394 676 514 370 223 240 239 149 398 719 814 578 952 961 982 1055 1005 975 956 912 623 516 932 1124 1185 1177 1015 635 824 836
747 551 382 222 339 259 272 398 285 168 34 43 7 601 787 947 824 931 1049 899 899 951 1157 1051 1242 1128 763 862 746 552 415 478 609
342 271 262 161 164 214 181 134 290 188 66 53 12 345 542 818 916 639 735 813 752 932 758 706 660 480 340 336 337 219 135 115 100
277 357 65 0 0 8 44 77 140 225 58 86 30 24 542 606 597 542 669 714 748 737 851 603 307 315 364 158 80 83 80 93 79
591 246 53 0 1 0 8 34 100 70 157 71 14 344 326 333 369 383 459 537 514 538 509 367 305 300 297 205 132 114 137 108 66
248 248 49 0 9 2 61 123 188 96 85 174 203 203 179 146 247 266 337 346 212 102 129 199 176 131 138 79 42 21 27 50 38
118 210 118 40 0 0 0 133 218 79 26 21 108 195 197 231 143 124 105 101 44 40 101 159 116 91 76 65 30 29 32 44 25
176 255 142 149 70 3 2 145 252 58 17 60 8 10 31 82 72 76 16 12 13 35 14 11 7 19 21 4 10 20 20 7 2
314 278 222 185 112 29 50 75 197 78 63 65 90 53 37 37 11 4 0 0 2 1 0 0 1 3 3 2 6 2 0 2 8
263 254 147 218 200 116 102 80 81 106 106 91 120 63 31 75 87 95 21 48 54 25 10 1 1 6 13 1 0 22 26 8 0
67 74 102 226 221 148 131 126 195 207 111 91 118 112 92 126 86 97 36 60 22 20 20 24 13 11 0 13 10 0 0 4 13
70 48 76 82 141 126 136 171 135 124 115 145 78 103 169 113 104 107 99 98 17 7 6 4 6 10 9 5 27 39 42 13 2
66 65 45 28 1 0 0 0 0 1 15 34 58 61 112 84 76 63 80 49 50 34 0 0 0 0 0 0 0 0 0 0 0

GFSFLT1_con_mucape_132.txt.gz
CAPE
419 253 141 96 71 96 143 133 158 537 522 535 560 906 805 778 1005 937 663 677 812 798 888 629 619 633 1278 1395 1413 1309 1138 1405 1298
542 294 305 137 121 130 146 119 168 378 448 409 491 583 606 567 567 1201 803 540 492 482 553 923 893 673 1153 1017 1473 1216 1054 1257 1511
623 317 267 301 156 178 164 153 199 318 557 448 541 526 538 588 544 717 953 600 528 669 1145 1130 603 785 1188 1178 1228 1290 1107 1041 1190
381 339 338 443 325 194 158 152 196 393 662 619 612 554 520 661 669 628 750 764 1008 1127 1009 1207 761 991 1104 1183 1159 1143 1296 1431 1315
820 626 592 428 376 238 155 238 216 513 606 711 599 585 643 854 936 704 629 744 850 1174 1123 916 1084 1029 995 864 1039 1137 1226 1121 1295
311 314 335 395 398 213 207 426 422 658 696 742 627 567 591 705 924 889 655 686 772 693 640 712 781 903 1118 1153 1229 1162 1215 1084 1103
456 360 630 617 381 292 292 260 497 533 824 849 918 734 590 591 652 747 666 521 747 690 618 591 990 1129 1151 1127 1001 958 918 895 921
694 435 520 366 447 506 538 410 224 327 390 673 597 649 660 639 543 476 526 585 722 834 742 659 952 918 1055 1069 718 690 798 719 745
701 562 384 245 269 307 294 312 306 310 250 355 412 445 468 442 417 658 718 773 848 825 782 788 659 705 906 994 1055 1021 707 650 838
405 398 302 122 306 293 227 206 192 254 187 105 175 83 153 65 155 224 515 776 748 821 807 816 734 738 924 757 982 807 468 387 339
253 199 142 22 0 10 21 19 76 141 136 105 111 40 37 1 7 34 293 608 607 759 765 630 849 735 453 390 367 210 161 99 68
227 362 145 30 1 0 0 0 49 48 57 118 23 55 48 31 40 200 325 435 573 603 466 370 275 297 262 211 130 110 118 123 133
326 266 134 67 23 1 31 56 1 0 82 91 47 8 15 3 5 339 402 464 463 413 408 203 101 131 165 113 123 134 102 56 37
207 390 158 70 5 4 0 67 55 1 7 59 94 124 54 17 8 86 147 249 207 286 257 208 119 85 65 55 32 7 14 26 36
148 176 129 119 46 21 5 69 110 0 9 0 1 29 110 94 68 87 66 31 75 102 201 110 51 35 67 74 59 37 58 51 23
230 271 143 131 45 21 6 57 93 13 19 36 19 6 6 2 3 2 34 40 38 8 22 21 6 5 20 18 37 61 75 5 0
418 205 223 152 219 481 131 59 105 46 29 64 52 15 64 34 14 2 22 19 3 11 40 69 37 24 2 5 5 6 0 0 0
140 151 189 235 338 151 164 132 136 107 83 109 54 0 38 59 6 50 80 83 38 53 35 71 27 6 2 0 0 0 0 0 9
93 98 148 167 172 308 204 212 175 151 135 126 78 22 24 55 54 73 30 67 68 68 70 64 51 14 9 15 4 0 1 1 0
42 70 64 89 122 154 221 199 206 153 134 137 148 341 130 106 119 99 99 56 28 76 34 27 30 25 31 51 17 7 0 0 0